[{"header": {"dx": 0.06612293990616946, "dy": 0.0552356325346848, "nx": 98, "ny": 59, "la1": 35.046912555036876, "la2": 31.78801023549047, "lo1": -121.43107172385933, "lo2": -114.95102361305473, "refTime": "2026042017", "parameterCategory": 1, "parameterNumber": 2}, "data": [-2.4, -2.26, -2.26, -2.26, -2.29, -2.14, -2.32, -2.82, -3.08, -1.88, -0.0, -0.0, -0.0, -0.0, -0.0, 1.08, 1.05, 1.14, 1.63, 2.66, 3.91, 5.03, 5.06, 5.58, 5.58, 5.51, 6.71, 7.6, 7.2, 6.64, 0.0, 0.0, 0.0, 0.0, 0.0, 0.98, 2.0, 2.0, 2.95, 5.72, 7.21, 3.72, 2.12, 1.7, 3.22, 3.68, 3.6, 3.4, 2.99, 3.77, 3.55, 4.58, 4.29, 3.47, 3.91, 3.91, 5.24, 5.59, 5.75, 5.81, 5.7, 4.66, 4.92, 4.02, 4.47, 5.36, 6.26, 7.6, 8.94, 9.83, 10.73, 9.83, 9.39, 8.49, 7.97, 7.97, 9.32, 9.83, 9.83, 8.49, 5.64, 4.24, 3.6, 2.84, 4.47, 4.47, 3.58, 3.58, 3.16, 1.08, -0.0, -0.0, -0.0, -0.0, -0.0, -0.96, -2.99, -3.91, -2.23, -2.26, -2.26, -2.26, -2.29, -1.76, -1.65, -2.16, -2.36, -1.7, -0.61, -0.0, -0.0, -0.0, -0.0, -0.0, 0.96, 1.63, 1.32, 1.98, 2.99, 4.37, 5.31, 5.31, 4.74, 4.54, 3.39, 3.16, 3.4, 7.6, 5.37, 0.0, 0.0, 0.0, 0.0, 0.0, 0.0, 0.0, 1.23, 8.49, -0.0, -0.0, -0.0, 1.05, 2.76, 4.47, 4.46, 4.22, 3.97, 3.97, 4.58, 4.87, 5.37, 4.74, 4.11, 4.54, 4.89, 6.4, 6.4, 6.36, 5.7, 4.92, 3.13, 2.68, 3.58, 4.47, 5.81, 7.15, 8.49, 9.83, 10.28, 8.94, 8.94, 8.49, 7.15, 7.15, 8.94, 9.83, 9.83, 8.49, 5.64, 4.24, 3.6, 2.84, 4.47, 4.47, 3.58, 3.58, 3.16, 1.08, -0.0, -0.0, -0.0, -0.0, -0.0, -0.96, -2.99, -3.91, -2.23, -2.4, -2.26, -2.26, -2.12, -1.76, -1.65, -1.65, -1.67, -1.7, -0.54, 0.61, 1.05, -0.0, -0.0, -0.0, -0.0, -0.0, 1.03, 1.49, 2.64, 2.82, 4.14, 4.96, 4.96, 3.91, 2.8, 0.0, 0.0, 5.69, 4.0, 4.74, 5.36, 2.4, 0.0, 0.0, -2.49, -1.4, 0.0, -1.75, -0.89, -0.0, 0.88, 2.16, 4.02, 4.29, 3.68, 3.45, 3.91, 4.74, 5.06, 6.28, 6.63, 5.93, 4.19, 4.6, 5.2, 5.6, 6.79, 6.36, 5.2, 4.02, 3.58, 3.13, 2.8, 3.82, 5.81, 7.15, 7.6, 8.49, 8.94, 9.83, 9.29, 7.5, 6.61, 6.58, 8.38, 10.73, 10.73, 8.91, 4.11, 3.16, 2.0, 0.0, 0.0, 0.0, 2.84, 3.2, 5.2, -0.0, -0.0, -0.0, -0.0, -0.0, -0.0, -1.14, -2.76, -3.91, -1.71, -2.23, -2.26, -2.26, -1.63, -1.76, -1.65, -1.65, -1.65, -1.14, -0.0, 0.76, 1.05, -0.0, -0.0, -0.0, -0.0, -0.0, 0.96, 1.72, 1.84, 2.66, 3.2, 4.58, 4.42, 4.56, 2.98, 6.26, 7.6, 2.17, 2.26, 1.84, 3.0, 3.97, 8.05, 8.49, 0.0, 0.0, -3.8, -1.75, -0.0, 0.96, 1.99, 3.22, 3.97, 3.97, 3.0, 3.76, 4.11, 4.89, 5.24, 6.9, 6.9, 5.72, 4.98, 4.57, 5.09, 5.51, 5.51, 5.7, 5.2, 4.47, 4.47, 2.53, 3.2, 4.24, 5.64, 6.71, 7.15, 8.05, 9.16, 8.79, 8.0, 6.13, 5.36, 6.8, 7.6, 11.62, 12.07, 0.0, 0.0, 0.0, 0.0, -1.55, 0.0, 0.0, 1.27, 4.47, -0.0, -0.0, -0.0, -2.17, -0.0, -0.0, -0.0, -0.0, -3.22, -3.91, -1.71, -1.71, -1.73, -1.73, -1.73, -1.76, -1.76, -1.65, -1.65, -1.12, -0.0, 0.82, 0.88, -0.0, -0.0, -0.0, -0.0, -0.0, -0.0, -0.0, 1.25, 1.32, 1.32, 2.99, 2.64, 1.49, 1.93, 2.49, 2.28, 1.25, 0.96, 1.7, 2.4, 0.89, 1.4, 1.63, 3.72, 2.69, -1.98, -1.84, -0.0, 1.84, 2.6, 2.95, 2.0, 2.16, 2.99, 3.91, 4.89, 5.37, 6.64, 7.2, 6.4, 5.2, 4.57, 5.26, 5.26, 5.26, 4.82, 4.77, 4.47, 4.47, 4.02, 3.2, 3.39, 4.34, 4.77, 4.92, 6.2, 8.05, 8.3, 4.4, 0.0, 0.0, 2.48, 4.11, 6.7, 9.6, 0.0, -6.32, -1.27, -0.98, -1.08, -0.96, 0.0, 0.0, 4.02, -1.84, -3.32, -2.1, -0.0, -1.84, -1.73, -0.0, -0.0, -1.55, -2.76, -3.47, -1.71, -1.71, -1.73, -1.73, -1.73, -1.63, -1.76, -1.65, -1.65, -1.12, -0.0, 0.59, 1.08, -0.0, -0.0, -0.0, -0.0, -0.0, -0.0, -0.0, -0.0, -0.0, -0.0, -0.0, -0.0, -0.0, -0.0, -0.0, 1.47, 2.69, 1.84, 1.99, 1.4, 1.1, 0.88, 1.6, 3.72, 2.99, -1.83, -3.55, -0.89, 1.32, 2.98, 3.17, 2.8, 2.82, 4.42, 5.06, 5.15, 5.37, 6.64, 6.4, 5.94, 4.66, 4.34, 4.82, 4.38, 4.34, 4.34, 5.36, 4.47, 3.58, 3.58, 4.02, 5.81, 6.71, 6.26, 4.47, 5.73, 6.23, -0.0, -7.81, -5.37, -3.22, -1.7, 0.0, 2.4, 3.8, 0.0, -2.4, -1.41, -1.19, -2.32, -2.26, 0.0, 7.6, -1.4, -1.26, -1.69, -1.93, -0.0, -0.0, -0.0, 2.0, -0.0, -2.2, -3.91, -3.0, -1.71, -1.61, -1.73, -1.73, -1.63, -1.76, -1.76, -1.65, -1.65, -1.65, -0.57, 0.58, 0.96, -0.0, -0.0, -0.0, -0.0, -0.0, -0.0, -0.0, -0.0, -0.0, -0.0, -0.0, -0.0, -0.0, -0.0, -0.0, 2.99, 3.55, 2.82, 0.82, -0.0, -0.0, -0.0, 0.82, 2.8, 4.29, -0.0, -2.82, -2.54, -0.0, 1.25, 2.69, 4.6, 4.98, 5.21, 6.01, 5.15, 5.01, 6.0, 5.6, 5.51, 4.92, 4.92, 5.36, 4.47, 4.02, 4.47, 4.02, 3.58, 2.68, 4.02, 6.26, 7.94, 8.91, 8.82, 5.81, 4.47, 4.09, -0.0, -3.48, -4.57, -4.77, -5.36, -4.84, -1.7, 0.0, 0.0, 0.0, 0.0, 0.0, -2.54, -3.11, -4.8, -2.1, -1.76, -1.69, -1.75, -1.58, -0.0, 1.75, 2.0, 4.84, 1.84, -1.99, -3.47, -3.2, -1.71, -1.61, -1.73, -1.73, -1.63, -1.76, -1.65, -1.65, -1.65, -1.65, -1.65, -0.53, -0.0, -0.0, -0.0, -0.0, -0.0, -0.0, -0.0, -0.0, -0.0, -0.0, -0.89, -0.0, -0.0, -1.52, -0.0, 1.52, 3.2, 3.2, -0.0, -0.0, -0.0, -0.0, 0.88, 0.81, 1.83, 2.99, 1.4, -0.0, -1.4, -0.0, -0.0, 1.63, 2.66, 4.37, 6.71, 8.24, 6.11, 5.37, 4.89, 4.98, 6.71, 6.26, 4.92, 4.47, 3.13, 3.13, 4.47, 3.13, 2.68, 2.24, 4.02, 5.4, 6.4, 7.4, 9.03, 7.01, 5.81, 5.94, -0.0, -1.99, -3.91, -5.24, -6.58, -5.81, -3.16, -2.48, -1.41, -2.69, 0.0, 0.0, 0.0, -2.39, -10.41, -6.44, -2.28, -0.0, -0.0, -0.0, 2.17, 3.76, 4.29, 4.65, -0.0, -2.8, -3.0, -3.0, -1.16, -1.73, -1.73, -1.73, -1.63, -1.76, -1.65, -1.65, -1.8, -1.67, -2.32, -1.67, -1.32, -0.0, -0.0, -1.03, -0.95, -0.95, -0.0, -0.0, -0.0, -1.63, -1.98, -0.95, -1.03, -1.41, -0.0, 1.84, 1.52, -0.0, -1.63, -1.63, -0.0, -0.0, 1.99, 2.0, -0.0, -0.0, -0.0, -0.0, -1.52, -0.0, -0.0, -0.0, 3.22, 2.99, 4.56, 6.14, 8.85, 9.5, 8.82, 5.29, 5.81, 6.71, 5.81, 4.92, 0.0, 0.0, 0.0, 0.0, 1.58, 4.02, 4.0, 5.6, 6.02, 6.2, 8.41, 8.49, 6.71, 7.15, 5.81, -4.43, -5.72, -6.64, -6.07, -3.9, -4.02, -4.02, -3.9, -4.74, -4.0, 1.67, 2.82, 5.69, -0.0, -3.11, -3.11, -0.0, -0.0, 1.7, 3.79, 3.58, 3.93, 2.95, -0.0, -2.8, -3.0, -1.98, -1.09, -1.18, -1.73, -1.63, -1.76, -1.76, -1.65, -1.8, -1.67, -1.67, -2.36, -2.4, -1.73, -0.55, -0.0, -1.03, -1.03, -1.03, -1.63, -0.0, -1.4, -1.4, -1.4, -1.4, -1.63, -0.0, -0.0, -0.0, -0.0, -1.98, -3.47, -1.84, -0.0, -0.0, 1.41, -0.0, -0.0, -0.96, -0.0, -0.0, -0.98, -0.0, -0.0, 1.13, 2.23, 3.48, 4.98, 6.16, 7.2, 10.21, 10.46, 6.26, 1.4, 0.0, -1.4, -1.4, -2.21, -3.16, -1.6, 0.0, 11.18, 6.45, 6.44, 7.21, 7.81, 6.71, 7.97, 9.39, 6.26, 5.81, 5.36, -6.26, -6.71, -6.26, -4.34, -3.6, -3.48, -3.93, -4.38, -4.15, -3.22, 0.0, 4.75, 7.06, 8.05, 4.11, 2.2, 2.0, 1.6, 2.21, 2.98, 3.16, 2.95, 0.96, -0.88, -2.8, -1.98, -1.98, -1.09, -1.18, -1.1, -1.63, -1.76, -1.65, -1.65, -1.67, -1.67, -1.7, -1.7, -2.2, -2.22, -1.76, -2.16, -1.99, -2.2, -3.0, -1.63, -0.0, -0.0, -1.19, -1.19, -1.19, -0.0, -0.0, -0.0, -0.0, -0.0, -1.7, -3.22, -2.0, -0.0, -0.0, -0.0, -1.7, -1.7, -1.7, -0.98, -1.13, -0.0, -0.0, -0.0, -0.0, 2.0, 3.93, 4.98, 6.02, 6.65, 6.45, 8.63, 12.45, 6.4, 0.0, -2.39, -4.2, -3.79, -2.84, -3.8, 12.96, 2.63, 3.68, 5.6, 8.82, 9.63, 7.6, 6.52, 2.54, 0.0, 0.0, 0.0, 0.0, -4.4, -4.47, -4.02, -3.6, -3.58, -3.93, -4.0, -4.47, -3.16, -0.96, 1.67, 8.8, 8.82, 8.94, 9.39, 8.05, 6.26, 4.92, 3.2, 2.53, 2.0, 0.96, -0.96, -2.99, -1.84, -1.03, -1.09, -1.18, -1.1, -1.2, -1.76, -1.65, -1.8, -1.14, -1.14, -1.16, -1.55, -1.73, -1.76, -2.48, -3.07, -3.22, -3.79, -3.79, -2.6, -0.0, -0.0, 0.85, 0.71, -0.0, -0.0, -0.0, -0.0, -0.0, 1.27, -0.0, -1.55, -1.27, -1.27, -1.08, -1.99, -2.2, -1.8, -0.98, -1.27, -0.0, -0.0, -0.0, -0.0, -0.0, 1.55, 1.83, 3.47, 4.43, 4.43, 4.96, 4.24, 4.95, -0.0, -0.0, 17.43, 16.54, -13.19, -7.9, -11.18, -4.48, -0.0, 2.37, 4.72, 6.98, 9.84, 10.37, 0.0, -3.49, -3.4, 0.0, 0.0, 0.0, -0.98, -2.98, -4.02, -4.34, -4.34, -4.4, -3.6, -3.13, -3.35, -3.16, 0.0, 5.9, 8.82, 10.18, 9.75, 9.55, 8.24, 6.71, 5.81, 4.4, 1.74, 1.27, -1.08, -1.99, -1.99, -0.96, -1.18, -1.1, -1.1, -1.2, -1.12, -1.12, -1.14, -1.14, -1.16, -1.16, -1.19, -1.08, -1.76, -2.0, -2.53, -3.22, -2.98, -4.11, -4.11, -4.11, -0.0, -0.0, 4.11, 2.4, 2.4, 2.4, 4.11, 4.11, 3.48, 2.41, 1.8, -0.0, -1.27, -2.0, -2.0, -2.0, -1.27, -0.0, -0.0, -0.0, -0.0, -0.0, -1.08, -0.96, -0.0, -0.0, -0.0, 1.63, -0.0, -0.0, -0.0, -0.0, -1.52, -0.0, -0.0, -0.0, 3.68, 13.86, -10.41, -4.2, -0.0, 2.1, 4.18, 3.92, 2.91, -0.0, -3.36, -13.86, -6.2, -3.49, -3.15, -2.2, -3.35, -4.47, -5.29, -4.82, -4.47, -4.47, -3.58, -3.13, -3.13, -3.82, -3.48, -2.6, 5.63, 8.58, 7.59, 6.42, 5.36, 5.69, 5.37, 5.36, 3.2, 1.6, -0.0, -1.08, -0.96, -0.96, -1.18, -1.1, -1.2, -1.12, -1.12, -1.12, -1.14, -1.14, -1.16, -1.07, -1.19, -1.08, -1.23, -1.41, -1.83, -2.2, -2.98, -1.84, -2.8, -4.74, -0.0, -0.0, 6.71, 6.71, 7.15, 6.71, 6.71, 5.94, 5.51, 3.79, 2.95, 0.98, -0.0, -1.13, -0.0, -0.0, -0.0, -0.0, -0.0, -0.0, -0.0, -1.08, -1.7, -1.3, -0.0, -0.0, -0.0, -0.0, -0.0, -0.0, -0.0, -1.73, -1.84, -0.0, -0.0, 0.98, 3.22, 6.01, -0.0, -3.4, -1.67, -0.0, 1.58, -0.0, -0.0, -1.05, -1.05, -0.0, -0.0, -8.94, -9.83, -6.64, -4.22, -3.6, -3.77, -4.6, -4.47, -4.02, -4.92, -6.26, -4.02, -3.58, -4.47, -7.15, 0.0, 6.01, 0.0, 0.0, 0.0, 2.54, 3.6, 0.0, 4.47, 2.84, -0.0, -0.0, -0.0, -1.05, -0.56, -1.1, -1.2, -1.12, -1.12, -1.14, -1.14, -1.05, -1.16, -1.07, -0.55, -0.55, -0.63, -0.73, -0.96, -1.19, -1.3, -1.84, -2.8, -0.0, -0.0, -0.0, 7.15, 7.15, 7.15, 7.15, 7.15, 6.71, 5.94, 4.11, 3.22, 3.48, 2.0, -0.0, -0.0, 1.8, 1.8, 1.9, -0.0, -0.0, -1.27, -2.2, -2.0, -2.0, -2.0, -0.0, -0.0, -0.0, -0.0, -0.0, -0.0, -1.55, -0.0, -0.0, -0.0, 2.0, 3.16, 2.84, 3.0, -0.0, -1.84, -0.0, -0.0, -0.0, -0.0, -1.26, -1.26, 1.26, 2.99, -0.0, -1.09, -0.93, -0.82, -1.63, -0.85, -0.94, -3.48, -5.81, -5.94, -6.79, -7.15, -5.36, -4.47, -5.81, -2.8, -2.4, -8.05, -6.01, -1.84, 0.0, 0.0, 0.0, 0.0, 4.47, 4.47, -0.0, -1.08, -1.08, -0.56, -0.56, -1.12, -1.12, -1.12, -1.14, -1.14, -1.16, -1.16, -0.54, -0.55, -0.63, -0.63, -0.81, -0.96, -1.19, -1.3, -1.7, -0.0, -0.0, -0.0, -0.0, 6.71, 7.15, 7.15, 7.15, 7.15, 7.15, 6.71, 6.26, 5.6, 4.11, 4.46, 3.16, 1.8, 1.98, 3.35, 2.97, -0.0, -0.0, -1.27, -2.53, -2.84, -2.84, -1.8, -2.0, -0.0, -0.0, -0.0, -0.0, -0.0, -0.0, -0.0, -0.0, 1.55, 2.2, 2.0, 1.8, 1.7, 1.52, -0.0, -0.0, -0.0, -0.0, -0.0, -0.0, -0.0, 4.56, 3.15, -0.0, -2.71, -1.52, -0.79, -0.0, -0.0, 0.85, -0.0, -9.39, -7.44, -5.69, -7.6, -7.2, -6.07, -4.47, -4.47, -4.43, -2.4, -5.36, -1.7, 0.0, 0.0, -1.84, 0.0, 5.36, 6.26, -0.0, -0.99, -0.99, -0.56, -0.61, -0.57, -1.12, -1.14, -1.14, -1.05, -0.59, -0.54, -0.61, -0.55, -0.63, -0.63, -0.0, -0.0, -0.0, -1.3, -0.0, -0.0, 5.81, 6.26, -0.0, 6.71, 6.71, 5.06, 3.2, 5.37, 6.4, 7.15, 6.71, 6.71, 6.26, 5.51, 4.8, 1.98, 2.41, 3.16, 2.0, -0.0, -1.8, -2.0, -1.13, -1.8, -1.98, -2.0, -2.0, -1.41, -0.0, -0.0, -0.0, -0.0, -0.0, -0.0, -0.0, 1.8, 2.0, 2.0, 2.0, 2.0, -0.0, -0.0, -0.0, 1.6, 2.84, 3.16, 2.98, 4.4, 2.8, -0.0, -2.6, -2.82, -2.44, -0.85, -0.0, 0.8, 1.75, 2.39, -3.82, -12.07, -8.93, -8.8, -9.13, -8.77, -8.05, -4.92, -3.13, -0.0, -4.02, -3.48, -4.74, -5.69, -3.2, 0.0, 0.0, 0.0, -4.92, -2.53, -2.53, -0.56, -0.57, -0.57, -0.57, -0.58, -0.58, -0.53, -0.59, -0.54, -0.61, -0.55, -0.63, -0.0, -0.0, -0.0, -0.0, -0.0, -0.0, -0.0, 5.81, -6.26, -0.0, 4.43, 6.26, 3.0, 0.0, 0.0, 5.06, 5.06, 6.4, 6.71, 6.71, 6.26, 4.11, 3.48, 2.23, 1.08, -0.0, -0.0, -0.0, -1.7, -0.0, -1.55, -1.55, -1.41, -0.0, -0.0, -0.0, -0.0, -0.0, -0.0, -0.0, -0.0, 3.16, 2.84, 2.53, 1.8, 2.0, 2.4, 2.6, 4.11, 3.48, 4.02, 4.02, 4.02, 3.39, 3.9, 1.7, -1.32, -2.69, -1.4, -1.84, -1.03, -0.0, 0.89, 2.51, 2.67, 1.33, -0.0, -0.0, -5.63, -7.28, -8.06, -8.05, -7.15, -5.81, -3.72, -3.2, -4.4, -6.26, -5.58, -4.46, 0.0, 0.0, -4.43, -4.4, -4.47, -4.47, -0.56, -0.57, -0.57, -0.53, -0.58, -0.58, -0.59, -0.54, -0.54, -0.55, -0.55, -0.0, -0.0, -0.0, -0.0, -0.0, -0.0, 0.96, 2.98, 5.81, -6.26, -2.8, -0.0, 1.6, -0.0, 5.81, 6.26, 4.47, 4.47, 6.26, 6.71, 6.71, 6.71, 5.6, 5.6, 4.46, 3.22, 2.8, 0.98, -0.0, -1.08, -1.08, -1.7, -0.0, -0.0, -0.0, -0.0, -0.0, -0.0, -0.0, -0.0, -0.0, -0.0, 3.16, 3.48, -0.0, -0.0, 3.48, 5.81, 5.81, 5.36, 4.92, 4.47, 2.68, 3.13, 3.13, 3.58, 3.35, 0.98, -0.0, 2.2, 4.22, 3.98, 4.32, 4.2, 2.8, 1.84, 0.89, 0.99, -0.0, -2.99, -5.37, -6.8, -6.23, -6.58, -5.7, -4.82, -4.57, -3.22, -3.22, -4.47, -4.74, -2.26, 0.0, -3.79, -4.4, -4.92, -4.92, -0.57, -0.57, -0.57, -0.58, -0.58, -0.53, -0.59, -0.54, -0.54, -0.0, -0.0, -0.0, -0.0, -0.0, -0.0, -0.0, -0.0, -0.0, 0.98, -0.0, -1.55, -1.52, -0.0, 1.27, 1.41, -0.0, -0.0, -0.0, 2.6, 5.36, 5.36, 5.81, 5.81, 5.81, 5.81, 5.81, 5.94, 5.21, 3.47, 3.22, -0.0, -0.0, -0.0, -0.0, 1.8, 2.0, -0.0, -0.0, -0.0, -0.0, -0.0, -0.0, -0.0, 3.48, 1.2, -0.0, 6.26, 4.02, 4.02, 5.36, 4.92, 4.02, 3.58, 3.58, 2.68, 3.13, 3.39, 4.34, 4.98, 6.02, 7.37, 10.68, 15.12, 16.48, 13.42, 6.71, 2.99, 1.4, -0.0, -0.0, -2.21, -6.01, -7.63, -7.01, -6.26, -5.81, -5.36, -4.85, -2.68, -1.83, -1.41, -4.92, -6.8, -3.0, -4.11, -5.2, -4.92, -4.92, -0.57, -0.57, -0.53, -0.58, -0.58, -0.53, -0.0, -0.0, -0.0, -0.0, -0.0, -0.0, -0.0, -0.0, -0.0, -0.0, -0.0, -0.0, -0.0, -0.0, -0.0, -0.0, -0.0, 1.84, 3.72, 3.0, 3.47, 3.22, 3.79, 4.4, 4.4, 4.92, 4.92, 4.92, 4.92, 5.36, 5.36, 5.81, 5.51, 5.51, 4.8, 3.79, 2.4, 2.2, 2.0, 3.48, 2.0, -0.0, -0.0, -0.0, -0.0, -0.0, -0.0, 2.0, 2.2, 2.21, 4.47, 0.0, 0.0, 4.02, 3.58, 3.13, 3.58, 3.13, 1.58, 1.9, 2.8, 3.9, 4.98, 6.7, 8.77, 11.62, 13.19, 15.08, 15.18, 7.93, -0.0, -0.0, -0.0, -0.0, -0.0, -3.8, -7.28, -7.6, -7.15, -4.82, -4.92, -5.09, -4.81, -2.4, -1.99, -3.22, -6.0, -4.8, -6.0, -6.26, -4.92, -4.92, -0.0, -0.0, -0.0, -0.0, -0.0, -0.0, -0.0, -0.0, -0.0, -0.0, -0.0, -0.0, -0.0, -0.0, -0.0, -0.0, -0.0, -0.0, -0.0, -0.0, 1.32, 1.41, 1.7, 1.84, 4.43, 4.43, 4.43, 4.84, 4.46, 4.66, 4.66, 4.24, 4.24, 4.47, 4.47, 4.47, 4.92, 5.36, 5.36, 5.81, 5.81, 5.64, 5.51, 4.84, 3.79, 3.58, 4.4, 3.16, -0.0, -0.0, -0.0, -0.0, -0.0, 3.16, 3.16, 4.4, 4.02, 4.43, 0.0, 0.0, 1.2, 0.0, 2.68, 2.24, -0.0, 2.84, 3.2, 3.39, 4.0, 6.0, 6.64, 8.05, -4.0, -6.71, -4.46, -6.71, -9.48, -7.13, -3.96, -0.0, -0.0, -0.0, -2.4, -4.56, -6.8, -6.0, -4.29, -5.58, -5.21, -5.37, -3.22, -1.52, -3.0, -5.36, -4.4, -5.36, -5.81, -5.81, -0.0, -0.0, -0.0, -0.0, -0.0, -0.0, -0.0, -0.0, -0.0, -0.0, -0.0, -0.0, -0.0, -0.0, -0.0, -0.0, -0.0, -0.0, -0.0, -0.0, 1.52, 1.52, 1.84, 1.84, 2.6, 4.11, 4.43, 5.51, 5.51, 5.09, 5.09, 5.09, 5.09, 5.09, 4.66, 4.47, 4.92, 4.92, 5.36, 5.36, 5.81, 5.64, 5.64, 5.2, 4.8, 4.22, 4.66, 3.16, -0.0, -0.0, -0.0, -0.0, -0.0, 3.16, 3.16, 4.0, 3.82, 4.47, 0.0, 0.0, 0.0, 0.0, 2.68, 3.13, 4.02, 2.84, 3.13, 2.8, 3.82, 4.0, 3.22, -0.0, -7.94, -5.09, -5.09, -6.9, -8.94, -9.17, -5.15, -0.0, -0.0, -0.0, -0.0, -0.95, -2.12, -2.6, -3.91, -5.24, -5.94, -6.71, -5.6, -4.11, -2.6, -4.92, -4.0, -4.92, -4.4, -4.4, -0.0, -0.0, -0.0, -0.0, -0.0, -0.0, -0.0, -0.0, -0.0, -0.0, -0.0, -0.0, -0.0, -0.0, -0.0, -0.0, -0.0, -0.0, -0.0, -0.0, 1.52, 1.52, 1.98, 1.98, 1.98, 4.43, 4.43, 4.11, 5.51, 5.51, 5.51, 5.51, 5.64, 5.64, 5.64, 5.64, 5.36, 5.36, 4.92, 4.92, 5.36, 5.2, 5.2, 5.2, 4.4, 4.0, 3.79, 2.2, -0.0, -0.0, 2.2, 2.2, 3.16, 2.84, 2.84, 3.6, 3.35, 3.9, 4.02, 0.0, 0.0, 0.0, 2.68, 3.13, 4.02, 2.53, 2.4, 4.47, 3.58, 4.47, 4.0, -3.2, -9.26, -10.73, -5.81, -4.66, -7.63, -7.59, -6.94, -2.06, -0.0, -1.33, -1.07, -0.0, -0.89, -2.99, -4.11, -4.98, -5.81, -6.64, -5.36, -4.77, -4.24, -4.02, -4.47, -5.36, -4.4, -4.4, -0.0, -0.0, -0.0, -0.0, -0.0, -0.0, -0.0, -0.0, -0.0, -0.0, -0.0, -0.0, -0.0, -0.0, -0.0, -0.0, -0.0, -0.0, -0.0, 1.14, 1.52, 1.52, 1.52, 1.98, 1.98, 3.47, 4.43, 4.43, 4.43, 5.94, 5.94, 5.94, 5.94, 5.64, 5.64, 6.07, 6.07, 5.81, 5.81, 5.36, 5.36, 5.2, 4.77, 4.66, 4.66, 4.66, 4.46, 3.79, 2.4, 3.22, 3.79, 4.11, 2.0, 2.84, 2.53, 2.53, 3.6, 3.35, 4.4, 3.13, 3.13, -1.9, -2.68, 3.13, -0.0, 2.8, 2.8, 3.58, 3.58, 4.92, 4.0, -0.0, -8.48, -11.03, -11.91, -8.94, -3.95, -4.09, -4.46, -5.29, -4.58, -2.95, -1.33, -0.0, -0.0, -1.83, -3.48, -4.77, -4.82, -5.09, -6.71, -5.81, -4.82, -4.47, -4.02, -4.02, -2.84, -2.84, -0.0, -0.0, -0.0, -0.0, -0.0, -0.0, -0.0, -0.0, -0.0, -0.0, -0.0, -0.0, -0.0, -0.0, -0.0, 0.88, 0.88, 1.05, 1.14, 1.14, 1.41, 1.52, 1.52, 1.52, 3.47, 3.47, 4.43, 4.43, 4.43, 5.94, 5.94, 5.94, 5.94, 5.94, 6.07, 6.07, 6.07, 6.07, 5.81, 5.64, 5.64, 5.09, 5.09, 5.09, 4.66, 4.66, 5.09, 4.84, 4.84, 5.2, 5.2, 4.09, 3.48, 2.2, 3.16, 3.6, 2.53, 3.6, 4.66, 3.79, 2.84, 3.58, -2.68, 2.68, -0.0, 2.4, 3.39, 3.82, 4.02, 4.02, 3.9, 1.7, -1.63, -9.83, -11.45, -12.39, -11.62, -4.57, -4.29, -4.75, -5.95, -5.54, -2.95, -1.26, -0.82, -0.96, -1.19, -2.0, -4.47, -4.24, -4.98, -6.21, -4.92, -4.92, -4.92, -4.02, -2.53, -2.53, -0.0, -0.0, -0.0, -0.0, -0.0, -0.0, -0.0, -0.0, -0.0, -0.0, -0.0, -0.0, -0.0, 0.7, 0.88, 0.88, 0.88, 1.05, 1.14, 1.14, 1.14, 1.41, 1.52, 1.52, 2.8, 3.47, 3.47, 4.43, 4.43, 5.21, 5.94, 5.51, 5.94, 5.94, 5.94, 6.26, 6.26, 6.26, 5.81, 5.81, 5.64, 5.51, 5.09, 5.09, 5.09, 5.09, 5.09, 5.51, 5.2, 5.2, 5.2, 4.4, 3.16, 2.53, 3.16, 3.35, 2.84, 3.2, 3.35, 4.4, 4.46, 1.9, 3.58, 2.68, 3.58, 2.4, 3.39, 3.9, 4.02, 4.02, 3.82, 2.84, 1.3, -0.0, -2.54, -9.55, -10.18, -7.15, -4.98, -5.21, -6.87, -6.76, -5.32, -3.6, -2.2, -0.0, 0.89, -0.0, -1.08, -1.99, -4.11, -5.34, -5.73, -4.92, -4.92, -4.92, -0.0, -0.0, -0.0, -0.0, -0.0, -0.0, -0.0, -0.0, -0.0, -0.0, -0.0, 0.61, 0.7, 0.7, 0.7, 0.7, 0.88, 0.88, 0.88, 1.05, 1.14, 1.14, 1.14, 1.41, 1.41, 1.41, 2.6, 3.22, 3.22, 3.22, 3.22, 4.84, 4.84, 4.84, 5.51, 5.51, 5.51, 5.81, 6.26, 5.81, 5.81, 5.81, 5.81, 5.09, 5.2, 5.36, 5.36, 4.8, 4.8, 5.81, 5.2, 5.2, 4.8, 4.4, 4.0, 3.2, 2.21, 3.16, 3.16, 3.6, 3.39, 4.34, 4.77, 3.35, -0.0, -0.0, -0.0, 4.47, 4.02, 4.47, 4.47, 4.47, 4.34, 3.39, 2.0, -0.0, -0.0, -0.95, -3.91, -5.81, -5.81, -5.51, -6.21, -9.17, -7.95, -4.94, -2.99, -0.89, -0.0, -0.89, -2.8, -3.0, -3.91, -5.2, -5.73, -5.81, -6.26, -3.79, -2.4, -2.4, -0.0, -0.0, -0.0, -0.0, 0.54, 0.61, 0.61, 0.61, 0.61, 0.61, 0.7, 0.7, 0.7, 0.7, 0.88, 0.88, 0.88, 1.05, 1.14, 1.14, 1.14, 1.41, 1.41, 1.41, 2.6, 2.6, 3.22, 3.22, 4.11, 4.11, 4.84, 4.84, 4.84, 5.51, 5.51, 5.51, 5.81, 5.81, 5.81, 5.81, 5.81, 5.36, 4.92, 4.02, 3.58, 3.79, 0.0, 0.0, 5.36, 5.81, 5.36, 4.92, 4.47, 2.53, 2.21, 2.21, 3.16, 3.16, 3.9, 4.34, 4.34, 3.35, 1.13, -0.0, -0.0, 3.82, 4.47, 4.82, 4.57, 4.34, 4.02, 3.35, -0.0, -3.47, -4.14, -2.69, -0.0, -3.2, -4.92, -5.36, -6.45, -9.58, -9.69, -7.42, -4.26, -3.2, -3.2, -3.55, -3.72, -2.8, -2.8, -4.54, -4.22, -5.26, -5.95, -4.22, -1.49, -1.49, 0.59, 0.59, 0.59, 0.59, 0.54, 0.61, 0.61, 0.61, 0.61, 0.61, 0.7, 0.7, 0.76, 0.76, 0.88, 0.88, 0.88, 1.05, 1.14, 1.14, 1.14, 1.14, 1.41, 1.41, 1.41, 2.6, 2.6, 3.22, 4.11, 4.11, 4.11, 4.84, 4.84, 4.84, 5.51, 5.51, 5.81, 5.81, 5.81, 5.81, 5.36, 5.36, 5.36, 4.77, 4.82, 3.58, 4.92, -5.36, 4.92, 4.47, 4.47, 4.02, 4.02, 3.13, 2.68, 1.9, 2.21, 3.6, 4.4, 4.0, 4.0, 2.53, 1.13, -0.0, 2.21, 3.35, 4.0, 4.92, 2.68, 3.16, 3.13, 2.23, -0.0, -6.94, -8.43, -5.98, -1.69, -0.0, -4.74, -4.82, -5.36, -8.99, -10.62, -9.77, -7.27, -5.21, -4.74, -4.58, -3.63, -1.55, -1.55, -3.22, -3.58, -4.4, -4.11, -3.45, -2.09, -2.09, 0.59, 0.59, 0.59, 0.59, 0.67, 0.61, 0.61, 0.61, 0.61, 0.61, 0.7, 0.7, 0.76, 0.88, 0.88, 0.88, 0.88, 1.05, 1.14, 1.14, 1.14, 1.14, 1.41, 1.41, 1.41, 2.6, 2.6, 4.11, 4.84, 5.2, 2.6, 4.11, 4.84, 4.84, 5.51, 5.64, 5.51, 5.81, 5.81, 5.81, 5.36, 5.36, 5.36, 4.92, 4.82, 4.24, -0.0, -2.4, -0.0, 4.47, 4.02, 3.58, 3.13, 3.13, 2.68, -0.0, -0.0, 2.53, 3.6, 4.0, 3.35, 2.53, 1.13, 2.53, 2.98, 3.35, 4.0, 4.4, 3.13, 0.0, -0.0, 2.0, 1.27, -9.54, -9.89, -8.82, -4.15, -0.0, -2.17, -8.49, -7.01, -6.26, -9.96, -10.25, -9.17, -7.27, -5.98, -4.47, -3.49, -2.99, -1.98, -2.16, -3.49, -3.79, -3.22, -3.2, -2.09, -2.09, 0.59, 0.59, 0.59, 0.59, 0.67, 0.61, 0.61, 0.61, 0.61, 0.7, 0.7, 0.7, 0.76, 0.88, 0.88, 0.88, 0.88, 1.05, 1.14, 1.14, 1.14, 1.14, 1.41, 1.41, 1.41, 1.41, 2.6, 3.22, 2.84, 2.4, 2.6, 2.6, 4.84, 4.84, 5.51, 5.64, 5.64, 5.81, 5.81, 5.36, 5.36, 5.36, 5.36, 5.36, 5.36, 5.2, 4.11, 2.4, 3.48, 4.92, 4.92, 4.47, 4.02, 3.13, -0.0, -0.0, -0.0, -0.0, 1.4, 2.98, 3.35, 2.53, 2.21, 2.6, 3.82, 3.9, 4.34, 5.09, 4.0, -0.0, -0.0, 2.23, 3.79, -0.0, -11.45, -9.75, -6.0, -3.6, -4.4, -10.84, -9.96, -8.77, -7.52, -9.2, -10.04, -9.16, -7.19, -6.44, -6.64, -3.76, -1.99, -1.7, -1.55, -2.53, -3.45, -3.2, -2.67, -2.67, 0.59, 0.59, 0.59, 0.67, 0.67, 0.67, 0.61, 0.61, 0.7, 0.7, 0.7, 0.76, 0.76, 0.76, 0.88, 0.88, 0.88, 1.14, 1.14, 1.14, 1.14, 1.41, 1.41, 1.41, 1.41, 1.41, 2.6, 2.6, 3.49, 2.23, 1.7, 3.79, 3.79, 4.46, 5.09, 5.09, 5.2, 5.2, 5.36, 5.36, 5.36, 5.36, 5.36, 5.36, 5.36, 5.36, 5.51, 5.51, 5.81, 5.36, 5.36, 5.36, 4.92, 4.47, 3.58, -0.0, -2.21, -2.53, -0.0, 3.16, 4.46, 2.4, 3.2, 3.39, 3.9, 4.02, 4.02, 4.34, 5.09, 4.84, 2.95, 3.72, 4.34, 2.53, -6.64, -12.71, -5.36, -3.9, -4.4, -8.67, -9.54, -9.33, -9.39, -8.8, -10.61, -10.86, -9.22, -6.4, -6.2, -4.74, -4.11, -1.99, -1.7, -2.4, -2.29, -3.2, -2.51, -2.51, 1.16, 1.16, 1.16, 1.3, 1.3, 1.3, 1.3, 1.3, 1.35, 1.35, 0.7, 0.76, 0.76, 0.76, 0.88, 0.88, 0.88, 1.14, 1.14, 1.14, 1.14, 1.41, 1.41, 1.41, 1.41, 1.41, 1.41, 3.22, 3.22, 3.22, 2.98, 3.79, 3.79, 4.46, 5.09, 5.09, 5.09, 5.2, 5.36, 5.36, 5.36, 5.36, 5.36, 5.36, 5.36, 5.36, 5.36, 5.81, 5.81, 5.81, 5.81, 5.81, 5.36, 4.92, 4.47, 4.02, -2.84, -2.53, -3.16, 4.47, 3.6, 3.58, 3.58, 4.02, 3.58, 3.39, 3.39, 3.82, 5.09, 4.46, 3.93, 5.09, 4.92, 5.51, 3.25, -6.2, -12.96, -6.51, -4.02, -6.26, -8.49, -9.83, -10.18, -9.3, -10.12, -10.12, -10.75, -8.85, -6.45, -5.69, -4.84, -3.79, -2.76, -2.4, -2.29, -2.47, -2.35, -2.35, 1.16, 1.16, 1.16, 1.3, 1.3, 1.3, 1.3, 1.47, 1.47, 1.35, 1.47, 0.76, 0.76, 0.88, 0.88, 0.88, 0.88, 1.14, 1.14, 1.14, 1.14, 1.41, 1.41, 1.41, 1.41, 1.41, 1.84, 3.22, 3.22, 3.22, 2.98, 3.79, 3.79, 4.46, 5.09, 5.09, 5.09, 5.09, 5.36, 5.36, 5.36, 5.36, 5.36, 5.36, 5.36, 5.36, 5.36, 5.36, 5.81, 5.81, 5.81, 5.36, 5.36, 4.92, 4.47, 4.47, 4.47, -4.02, -3.58, 3.58, 3.2, 4.02, 4.02, 3.58, 3.58, 3.6, 3.35, 3.35, 3.6, 4.0, 4.0, 5.09, 5.36, 8.49, 10.84, 10.41, 14.75, -13.02, -14.03, -12.07, -11.18, -11.18, -11.03, -10.04, -8.85, -9.8, -8.58, -6.7, -4.96, -6.32, -5.21, -4.8, -3.48, -3.07, -3.22, -3.33, -2.51, -2.51, 1.26, 1.26, 1.16, 1.3, 1.3, 1.3, 1.3, 1.47, 1.47, 1.47, 1.47, 1.47, 0.76, 0.88, 0.88, 0.88, 0.96, 1.14, 1.14, 1.14, 1.14, 1.41, 1.41, 1.41, 1.41, 1.41, 1.84, 1.84, 3.22, 3.22, 3.79, 3.79, 3.79, 3.79, 5.09, 5.09, 5.09, 5.09, 5.36, 5.36, 5.36, 5.36, 5.36, 5.09, 5.09, 5.09, 5.36, 5.36, 5.81, 5.81, 5.81, 5.36, 5.36, 4.92, 4.47, 4.47, 4.47, 4.02, -3.58, 3.13, 3.58, 3.58, 4.47, 3.58, 2.68, 3.58, 3.82, 3.9, 3.9, 3.9, 5.09, 4.34, 6.07, 8.94, 10.73, 7.27, -0.0, -12.96, -14.75, -14.3, -12.07, -8.94, -7.63, -6.01, -4.0, -4.0, -3.8, -3.0, -3.72, -4.74, -4.46, -4.8, -4.0, -3.48, -4.47, -4.94, -3.4, -3.4, 1.26, 1.26, 1.41, 1.3, 1.3, 1.3, 1.3, 1.47, 1.47, 1.47, 1.47, 1.47, 1.47, 0.88, 0.88, 0.88, 1.14, 1.14, 1.14, 1.14, 1.14, 1.41, 1.41, 1.41, 1.41, 1.84, 1.84, 1.84, 1.84, 3.22, 3.79, 3.79, 3.79, 3.79, 5.09, 5.09, 5.09, 5.36, 5.36, 5.36, 5.36, 5.36, 5.36, 4.24, 3.79, 4.8, 5.09, 5.36, 5.81, 5.51, 5.51, 5.36, 4.92, 4.92, 4.47, 4.02, 4.47, 4.02, 3.13, 3.13, 3.58, 3.58, 4.47, 3.58, 2.8, 3.58, 3.58, 4.02, 3.58, 4.02, 3.9, 4.34, 5.81, 8.94, -11.18, -7.63, -5.21, -7.15, -11.4, -12.07, -10.28, -7.6, -4.66, -2.48, -1.52, -1.32, -3.0, -3.22, -2.98, -3.48, -3.72, -4.4, -4.98, -5.36, -6.28, -5.72, -5.2, -5.2, 1.26, 1.26, 1.41, 1.41, 1.3, 1.3, 1.47, 1.47, 1.47, 1.47, 1.47, 1.47, 1.47, 0.88, 0.88, 0.88, 0.88, 1.14, 1.14, 1.14, 1.14, 1.41, 1.41, 1.41, 1.41, 1.84, 1.84, 1.84, 1.84, 2.4, 3.79, 3.79, 3.79, 3.79, 4.8, 5.09, 5.09, 5.36, 5.36, 5.36, 5.36, 5.36, 5.36, 4.02, 4.8, 2.6, 3.79, 5.09, 5.09, 5.51, 5.51, 5.09, 4.66, 4.47, 4.02, 4.02, 4.02, 4.02, 3.58, 3.13, 3.58, 3.58, 3.58, 3.13, 2.68, 4.02, 4.02, 3.58, 3.39, 3.39, 3.9, 5.36, 5.36, 5.36, -11.18, -11.62, -4.98, -6.23, -10.58, -11.18, -9.21, -7.15, -5.58, -2.0, -1.52, -1.52, -3.0, -3.22, -2.98, -3.48, -4.09, -4.8, -6.64, -6.44, -6.63, -6.18, -5.37, -5.2, 1.26, 1.26, 1.41, 1.41, 1.3, 1.3, 1.47, 1.47, 1.47, 1.47, 1.47, 1.47, 1.47, 1.7, 0.88, 0.88, 0.88, 1.05, 1.14, 1.14, 1.14, 1.41, 1.41, 1.41, 1.41, 1.84, 1.84, 1.84, 2.6, 2.4, 2.4, 3.79, 3.79, 4.8, 4.8, 5.09, 5.09, 5.36, 5.36, 5.36, 5.36, 5.36, 5.36, 4.92, 4.02, 2.6, 2.6, 3.79, 5.09, 5.09, 5.09, 5.09, 4.66, 4.24, 3.82, 3.82, 4.02, 4.02, 3.58, 3.58, 3.58, 3.13, 3.13, 3.58, 3.58, 4.02, 3.58, 3.39, 3.39, 3.39, 4.02, 4.47, 5.36, 2.84, -8.05, -12.35, -12.07, -7.15, -5.36, -6.71, -5.81, -5.36, -5.6, -2.4, -1.41, -1.7, -2.73, -2.98, -3.48, -3.48, -5.09, -6.07, -6.58, -6.8, -5.72, -5.24, -4.43, -5.37, 1.26, 1.26, 1.41, 1.41, 1.41, 1.41, 1.47, 1.47, 1.47, 1.47, 1.47, 1.47, 1.7, 1.7, 0.88, 0.88, 0.88, 1.05, 1.14, 1.14, 1.41, 1.41, 1.41, 1.41, 1.41, 1.84, 1.84, 1.84, 2.6, 2.4, 2.4, 2.4, 3.79, 4.8, 4.8, 5.09, 5.09, 5.36, 5.36, 5.36, 5.36, 5.36, 5.36, 5.36, 5.81, 4.92, 0.0, 3.48, 4.4, 4.66, 4.66, 4.66, 4.24, 3.82, 3.82, 3.82, 3.82, 3.82, 3.47, 3.39, 3.58, 3.58, 3.58, 3.58, 3.58, 3.58, 3.13, 3.6, 3.39, 3.9, 4.02, 4.47, 5.36, 5.09, 2.53, -7.6, -11.18, -11.46, -9.21, -4.4, -3.47, -3.9, -4.29, -5.06, -2.8, -1.41, -2.48, -3.16, -3.48, -4.66, -4.66, -4.92, -4.82, -4.82, -4.8, -5.37, -5.24, -5.24, 1.26, 1.26, 1.41, 1.41, 1.41, 1.41, 1.6, 1.47, 1.47, 1.47, 1.47, 1.47, 1.7, 1.7, 1.7, 0.88, 0.88, 1.05, 1.14, 1.14, 1.41, 1.41, 1.41, 1.41, 1.84, 1.84, 1.84, 1.84, 2.6, 2.6, 2.4, 2.4, 3.79, 4.8, 4.8, 4.8, 5.36, 5.36, 5.36, 5.36, 5.36, 5.36, 5.2, 5.2, 5.81, 5.81, 5.36, 4.92, 4.0, 4.66, 4.24, 4.24, 3.82, 3.82, 3.39, 3.39, 3.39, 3.82, 3.47, 3.47, 3.47, 3.58, 3.13, 4.02, 3.58, 3.58, 3.58, 3.58, 3.58, 4.02, 4.47, 4.47, 5.36, 4.38, 4.84, -0.0, -7.63, -11.84, -10.73, -8.85, -9.75, -8.93, -9.42, -8.85, -7.27, -2.98, -2.48, -3.72, -3.72, -4.66, -4.66, -4.92, -4.92, -5.36, -4.65, -4.89, -4.89, -4.89, 1.26, 1.26, 1.41, 1.41, 1.41, 1.41, 1.6, 1.47, 1.47, 1.47, 1.47, 1.47, 1.7, 1.7, 1.7, 0.88, 0.88, 1.05, 1.14, 1.14, 1.41, 1.41, 1.41, 1.41, 1.84, 1.84, 1.84, 1.84, 2.6, 2.6, 2.4, 3.79, 3.79, 3.79, 4.8, 4.8, 5.36, 5.36, 5.36, 5.36, 5.36, 5.36, 5.2, 5.2, 5.64, 5.81, 5.36, 5.36, 4.8, 4.66, 4.66, 4.66, 3.82, 3.82, 3.39, 3.39, 3.39, 3.39, 3.9, 3.47, 3.47, 3.9, 3.58, 4.0, 3.58, 3.58, 3.58, 3.58, 3.58, 4.02, 4.47, 4.47, 4.47, 4.82, 4.4, 3.48, 2.73, -0.0, -12.39, -10.43, -15.65, -11.7, -14.18, -12.65, -9.3, -6.08, -3.16, -3.72, -4.77, -4.66, -4.66, -4.66, -4.92, -5.2, -5.2, -5.01, -5.01, -5.01, 1.41, 1.41, 1.41, 1.41, 1.41, 1.41, 1.41, 1.47, 1.47, 1.47, 1.47, 1.47, 1.7, 1.7, 1.7, 0.88, 0.88, 1.05, 1.05, 1.14, 1.41, 1.41, 1.41, 1.41, 1.84, 1.84, 1.84, 1.84, 2.6, 2.6, 2.4, 3.79, 3.79, 3.79, 4.8, 5.36, 5.36, 5.36, 5.36, 5.36, 5.36, 5.09, 5.09, 5.2, 5.2, 5.2, 5.2, 5.09, 5.09, 5.09, 5.09, 5.09, 4.66, 3.82, 2.98, 2.98, 2.98, 3.35, 3.9, 3.9, 3.2, 3.82, 4.02, 3.39, 3.6, 3.58, 3.58, 3.58, 3.58, 4.02, 4.92, 4.02, 4.34, 4.82, 4.4, 4.29, 4.98, 7.47, 10.4, 9.48, 11.7, -0.0, -17.02, -13.99, -10.73, -8.82, -7.6, -4.4, -4.34, -4.34, -5.36, -4.02, -4.47, -4.92, -4.8, -4.65, -4.65, -4.65, 1.41, 1.41, 1.41, 1.41, 1.41, 1.41, 1.41, 1.47, 1.47, 1.47, 1.47, 1.47, 1.7, 1.7, 1.7, 0.88, 0.88, 1.05, 1.05, 1.14, -0.0, 1.41, 1.41, 1.41, 1.84, 1.84, 1.84, 1.84, 2.6, 2.6, 2.4, 3.79, 3.79, 3.79, 5.36, 5.36, 5.36, 5.36, 5.36, 5.36, 5.36, 5.51, 5.09, 5.2, 5.2, 5.2, 5.09, 5.09, 5.09, 5.09, 5.09, 4.46, 4.09, 3.72, 3.35, 2.98, 3.35, 3.35, 3.6, 3.6, 3.2, 3.39, 3.58, 3.6, 3.39, 4.02, 4.02, 3.58, 4.02, 4.47, 4.02, 3.9, 4.34, 4.4, 4.4, 4.4, 4.98, 5.94, 7.81, 8.54, 12.03, 12.64, -17.39, -15.27, -12.45, -10.38, -9.55, -4.38, -4.34, -4.92, -4.47, -3.58, -4.02, -4.92, -4.8, -4.43, -4.43, -4.43, 1.41, 1.41, 1.41, 1.41, 1.41, 1.41, 1.41, 1.47, 1.47, 1.47, 1.47, 1.47, 1.7, 1.7, 1.7, 0.88, 0.88, 1.05, 1.05, 1.14, -0.0, -0.0, 1.41, 1.84, 1.84, 1.84, 1.84, 2.6, 2.6, 2.6, 2.6, 3.79, 3.79, 3.79, 5.36, 5.36, 5.36, 5.36, 5.36, 5.36, 5.36, 5.51, 5.09, 5.09, 4.8, 4.46, 4.46, 4.46, 4.46, 4.46, 4.46, 4.46, 4.09, 4.09, 3.35, 3.35, 3.35, 3.35, 3.35, 3.6, 3.6, 3.39, 3.58, 3.58, 3.58, 4.02, 3.58, 4.02, 4.47, 4.02, 4.02, 3.9, 4.34, 4.34, 4.34, 4.34, 4.82, 5.73, 6.36, 6.57, 9.46, 14.75, -17.88, -16.76, -13.7, -10.96, -7.5, -4.92, -4.92, -4.92, -4.02, -3.82, -4.02, -4.47, -4.4, -3.48, -3.48, -3.48, 2.04, 2.04, 2.04, 2.04, 2.04, 1.41, 1.41, 1.47, 1.47, 1.47, 1.47, 1.47, 1.7, 1.7, 1.7, 1.7, 0.88, 1.05, 1.05, 1.14, 1.14, -0.0, 1.41, 1.84, 1.84, 1.84, 1.84, 2.6, 2.6, 2.6, 2.6, 3.79, 3.79, 3.79, 5.36, 5.36, 5.36, 5.36, 5.36, 5.36, 5.09, 5.51, 5.51, 5.09, 4.46, 4.46, 4.46, 4.46, 4.46, 4.46, 4.46, 4.46, 4.09, 3.72, 3.35, 3.35, 3.35, 3.35, 3.35, 3.6, 3.6, 2.98, 3.2, 3.58, 3.13, 4.02, 3.58, 3.58, 4.02, 3.58, 3.58, 3.9, 4.47, 4.47, 4.47, 4.34, 4.38, 4.82, 5.51, 6.36, 7.5, 11.18, -13.99, -16.99, -14.47, -10.41, -5.81, -4.92, -4.92, -4.92, -4.47, -4.02, -3.58, -4.47, -4.09, -3.16, -3.16, -3.16, 2.04, 2.04, 2.04, 2.04, 2.04, 2.04, 2.04, 1.47, 1.47, 1.47, 1.47, 1.47, 1.7, 1.7, 1.7, 1.7, 0.88, 1.05, 1.05, 1.14, 1.41, -0.0, -0.0, 1.84, 1.84, 1.84, 1.84, 2.6, 2.6, 2.6, 2.6, 4.11, 3.79, 3.79, 5.36, 5.36, 5.36, 5.36, 5.36, 5.36, 5.09, 5.09, 5.09, 5.09, 4.46, 4.46, 4.46, 4.46, 4.46, 4.46, 4.46, 4.46, 4.09, 3.72, 3.72, 3.35, 3.35, 3.35, 3.35, 3.35, 3.6, 2.98, 3.39, 3.39, 3.13, 3.58, 3.2, 2.53, 2.8, 3.39, 3.39, 3.58, 4.02, 4.02, 4.34, 4.34, 4.34, 4.82, 5.26, 5.26, 6.14, 8.05, -8.22, -13.59, -13.15, -10.41, -4.92, -4.82, -4.85, -4.34, -4.02, -3.58, -4.02, -4.02, -3.35, -3.16, -3.16, -3.16, 2.04, 2.04, 2.04, 2.04, 2.04, 2.04, 2.04, 2.11, 1.47, 1.47, 1.47, 1.47, 1.7, 1.7, 1.7, 1.7, 0.88, 1.05, 1.05, 1.05, 1.41, -0.0, -0.0, -0.0, 1.84, 1.84, 1.84, 2.6, 2.6, 2.6, 2.6, 4.11, 3.79, 3.79, 5.36, 5.36, 5.36, 5.36, 5.36, 5.36, 5.09, 5.09, 5.09, 5.09, 4.46, 4.46, 4.46, 4.46, 4.46, 4.46, 4.46, 4.09, 4.09, 3.72, 3.72, 3.72, 3.35, 3.35, 3.35, 3.35, 3.35, 2.98, 2.98, 2.98, 3.04, 3.58, 2.97, 2.8, 2.21, 2.53, 2.53, 2.21, 2.97, 3.9, 4.34, 4.0, 4.34, 4.34, 4.82, 4.82, 5.2, 5.81, -5.06, -9.83, -12.71, -8.94, 4.47, -5.2, -6.23, -4.57, -2.98, -2.0, -2.68, -3.58, -3.48, -4.43, -4.43, -4.43, 2.04, 2.04, 2.04, 2.04, 2.04, 2.04, 2.04, 2.29, 1.47, 1.47, 1.47, 1.47, 1.7, 1.7, 1.7, 1.7, 1.7, 1.05, 1.05, 1.05, 1.41, 1.41, -0.0, -0.0, -0.0, 1.84, 1.84, 2.6, 2.6, 2.6, 4.11, 4.11, 3.79, 3.79, 5.36, 5.36, 5.36, 5.36, 5.36, 5.36, 5.09, 5.09, 5.09, 5.09, 4.46, 4.46, 4.46, 4.46, 4.46, 4.46, 4.46, 4.09, 4.09, 3.72, 3.72, 3.72, 3.72, 3.35, 3.35, 3.35, 3.35, 2.98, 2.98, 2.98, 3.2, 3.51, 3.9, 3.39, 3.2, 2.8, 2.8, 2.8, 2.21, 2.4, 3.9, 4.34, 4.34, 4.82, 4.92, 4.92, 3.9, 4.47, -3.48, -7.2, -13.15, -10.73, 4.47, 4.92, -5.37, -4.54, -3.48, -1.98, -2.53, -4.92, -5.6, -3.22, -3.22, -3.22, 2.6, 2.6, 2.04, 2.04, 2.04, 2.04, 2.04, 2.29, 1.6, 1.47, 1.47, 1.47, 1.7, 1.7, 1.7, 1.7, 1.7, 1.05, 1.05, 1.05, 1.41, 1.41, 1.41, -0.0, -0.0, 1.84, 1.84, 2.6, 2.6, 2.6, 4.11, 4.11, 3.79, 5.36, 5.36, 5.36, 5.36, 5.36, 5.36, 5.36, 5.09, 5.09, 5.09, 4.46, 4.46, 4.46, 4.46, 4.46, 4.46, 4.46, 4.46, 4.09, 4.09, 3.72, 3.72, 3.72, 3.72, 3.72, 3.35, 3.35, 3.35, 2.98, 2.98, 2.53, 2.86, 3.32, 4.38, 4.47, 4.47, 4.02, 3.58, 3.13, 2.68, 2.24, 3.13, 4.02, 4.92, 4.92, 4.92, 4.47, 4.47, 3.58, -4.4, -12.87, -15.18, -12.96, 4.92, 4.02, 6.26, -5.06, -4.11, -3.48, -2.84, -4.47, -5.51, -3.47, -3.47, -3.47, 2.6, 2.6, 2.04, 2.04, 2.04, 2.04, 2.29, 2.29, 1.6, 1.6, 1.6, 1.47, 1.7, 1.7, 1.7, 1.7, 1.7, 1.05, 1.05, 1.05, 1.3, 1.41, 1.41, 1.84, 1.84, 1.84, 1.84, 2.6, 2.6, 2.6, 4.11, 4.11, 4.11, 5.36, 5.36, 5.36, 5.36, 5.36, 5.36, 5.36, 5.09, 5.09, 5.09, 4.46, 4.46, 4.46, 4.46, 4.46, 4.46, 4.46, 3.79, 3.48, 3.48, 3.72, 3.72, 3.72, 3.72, 3.72, 3.35, 3.35, 3.35, 2.98, 2.53, 2.53, 3.22, 3.45, 3.82, 4.02, 5.81, 5.36, 4.82, 4.0, 2.98, 2.4, 2.68, 3.58, 4.47, 4.92, 4.47, 4.02, 4.02, 3.13, -8.49, -13.41, -14.75, -12.52, -5.81, 3.58, 4.92, -3.97, -4.43, -3.48, -3.35, -4.47, -6.36, -5.06, -5.06, -5.06, 2.6, 2.6, 2.6, 2.04, 2.04, 2.04, 2.29, 2.29, 1.6, 1.6, 1.6, 1.6, 1.7, 1.7, 1.7, 1.7, 1.7, 1.05, 1.05, 1.05, 1.3, 1.3, 1.41, 1.84, 1.84, 1.84, 2.6, 2.6, 2.6, 2.6, 4.11, 4.11, 4.11, 5.36, 5.36, 5.36, 5.36, 5.36, 5.36, 5.36, 5.09, 5.09, 4.46, 4.46, 4.46, 4.46, 4.46, 4.46, 3.79, 3.79, 3.48, 3.48, 3.48, 3.48, 3.16, 3.72, 3.72, 3.72, 3.72, 3.35, 3.35, 3.35, 2.53, 2.86, 3.22, 3.45, 3.74, 4.02, 5.81, 5.36, 4.82, 4.34, 3.6, 3.39, 3.13, 3.58, 4.47, 4.47, 4.34, 3.9, 3.82, 2.53, -6.71, -11.18, -12.52, -10.28, -3.58, -3.58, -4.47, -5.95, -5.59, -3.93, -3.82, -6.26, -7.21, -6.32, -6.32, -6.32, 2.6, 2.6, 2.6, 2.04, 2.04, 2.29, 2.29, 2.29, 1.6, 1.6, 1.6, 1.84, 1.84, 1.7, 1.7, 1.7, 0.88, 1.05, 1.05, 1.05, 1.3, 1.3, 1.3, 1.7, 1.7, 1.7, 2.4, 2.6, 2.6, 2.6, 4.11, 4.11, 4.11, 5.36, 5.36, 5.36, 5.36, 5.36, 5.36, 4.8, 5.09, 5.09, 4.46, 4.46, 4.46, 4.46, 3.79, 3.79, 3.79, 3.79, 3.48, 3.48, 3.48, 3.48, 3.16, 3.16, 3.16, 3.16, 3.16, 2.84, 2.84, 2.84, 2.84, 3.22, 3.22, 3.83, 3.74, 3.95, 4.02, 5.36, 4.92, 4.02, 3.9, 3.58, 3.58, 4.02, 4.47, 4.47, 4.82, 4.0, 3.16, 1.27, -3.35, -8.05, -10.73, -9.83, -3.13, -4.02, -4.02, -5.09, -6.08, -5.36, -6.32, -7.15, -7.63, -7.07, -7.07, -7.07, 2.6, 2.6, 2.6, 2.6, 2.29, 2.29, 2.29, 2.29, 2.29, 1.6, 1.6, 1.84, 1.84, 1.84, 1.7, 0.88, 1.05, 1.05, 1.05, 1.05, 1.3, 1.3, 1.3, 1.7, 1.7, 1.7, 2.4, 2.4, 2.6, 2.6, 4.11, 4.11, 4.11, 5.36, 5.36, 5.36, 5.36, 5.36, 5.36, 4.8, 5.09, 5.09, 4.46, 4.46, 4.46, 3.79, 3.79, 3.79, 3.79, 3.79, 3.79, 3.48, 3.48, 3.48, 3.48, 3.16, 3.16, 3.16, 3.16, 3.16, 2.84, 2.84, 2.84, 3.22, 3.58, 3.58, 4.0, 3.9, 3.53, 5.36, 4.92, 4.02, 3.58, 4.02, 4.02, 4.02, 4.02, 4.47, 4.82, 4.4, 3.93, 2.2, -0.98, -6.14, -9.83, -10.96, -5.2, -3.58, -3.58, -3.82, -5.58, -5.69, -7.07, -7.6, -8.06, -5.21, -5.21, -5.21, 2.8, 2.8, 2.6, 2.6, 2.29, 2.29, 2.29, 2.29, 2.29, 1.6, 1.6, 1.84, 1.84, 1.84, 1.84, 0.88, 1.05, 1.05, 1.05, 1.05, 1.3, 1.3, 1.3, 1.7, 1.7, 1.7, 2.4, 2.4, 2.4, 2.6, 4.11, 4.11, 4.11, 5.81, 5.36, 5.36, 5.36, 5.36, 4.8, 4.8, 5.09, 5.09, 4.46, 4.46, 4.46, 3.79, 3.79, 3.79, 3.79, 3.79, 3.79, 3.48, 3.48, 3.48, 3.48, 3.16, 3.16, 3.16, 3.16, 3.16, 3.16, 2.84, 2.84, 3.22, 3.58, 3.58, 4.09, 3.82, 3.51, 4.92, 4.92, 4.47, 4.02, 4.02, 4.02, 4.02, 4.02, 4.02, 4.34, 4.98, 4.98, 3.93, -0.0, -5.6, -10.28, -11.84, -9.6, -5.21, -3.35, -2.53, -1.41, -3.97, -6.7, -8.49, -8.0, -6.32, -6.32, -6.32, 2.8, 2.8, 2.8, 2.8, 3.11, 2.47, 2.47, 2.47, 2.29, 2.29, 1.84, 1.84, 1.84, 1.84, 1.84, 1.84, 1.05, 1.05, 1.05, 1.05, 1.3, 1.3, 1.3, 1.7, 1.7, 1.7, 2.4, 2.4, 2.4, 3.79, 3.79, 4.11, 5.81, 5.81, 5.36, 5.36, 5.36, 5.36, 4.8, 4.8, 4.8, 4.46, 4.46, 4.46, 3.79, 3.79, 3.79, 3.79, 3.79, 3.79, 3.79, 3.48, 3.48, 3.48, 3.48, 3.48, 3.16, 3.16, 3.16, 3.16, 3.16, 3.16, 2.84, 3.58, 3.58, 3.58, 4.09, 4.24, 3.47, 3.58, 3.98, 5.26, 4.34, 3.9, 4.34, 4.34, 4.34, 3.9, 4.34, 4.82, 5.29, 4.4, -0.0, -6.0, -10.28, -12.04, -10.73, -7.87, -3.8, -1.41, -1.13, -2.0, -5.69, -8.49, -6.01, -3.6, -3.6, -3.6, 2.8, 2.8, 2.8, 2.8, 3.11, 2.47, 2.47, 2.47, 2.47, 2.8, 1.84, 1.84, 1.84, 1.84, 1.84, 2.16, 2.16, 1.05, 1.05, 1.05, 1.3, 1.3, 1.3, 1.7, 1.7, 1.7, 2.4, 2.4, 3.79, 4.8, 4.8, 4.8, 5.81, 5.36, 5.36, 5.36, 5.36, 4.8, 4.8, 4.8, 4.8, 4.46, 4.46, 4.84, 4.11, 4.11, 3.79, 3.79, 3.79, 3.79, 3.79, 3.48, 3.48, 3.48, 3.48, 3.48, 3.48, 3.16, 3.16, 3.16, 3.16, 3.16, 3.16, 3.58, 3.58, 3.16, 3.48, 4.0, 4.02, 3.13, 3.58, 4.82, 4.0, 4.66, 4.34, 4.34, 4.34, 4.34, 4.47, 4.92, 5.36, 4.34, -0.0, -5.6, -10.28, -12.45, -11.5, -6.71, -3.32, -1.58, 0.0, 0.0, -3.2, -5.69, 7.6, -0.0, -0.0, -0.0, 2.8, 2.8, 2.8, 2.8, 3.11, 2.47, 2.47, 2.47, 2.47, 2.8, 2.6, 1.84, 1.84, 1.84, 2.16, 2.16, 2.16, 1.99, 1.99, 1.05, 1.3, 1.3, 1.3, 1.7, 1.7, 1.7, 2.4, 3.79, 3.79, 4.8, 4.8, 4.8, 5.36, 5.36, 5.36, 5.36, 5.36, 4.8, 4.8, 4.8, 3.79, 4.46, 4.84, 4.84, 4.11, 4.11, 4.11, 3.79, 3.79, 3.79, 3.22, 3.22, 3.48, 3.48, 3.48, 3.48, 3.48, 3.16, 3.16, 3.16, 3.16, 3.16, 3.16, 3.16, 3.58, 3.16, 3.16, 4.0, 4.0, 3.13, 3.13, 3.07, 2.91, 5.36, 4.47, 4.47, 4.34, 4.34, 4.47, 4.92, 4.92, 4.82, 2.23, -3.47, -9.39, -11.21, -9.48, -6.44, -3.39, -1.62, 0.0, 0.0, 0.0, 0.0, 0.0, 5.81, 5.81, 5.81, 2.8, 2.8, 2.8, 2.8, 3.11, 2.47, 2.47, 2.47, 2.47, 2.8, 2.6, 1.84, 1.84, 1.84, 2.16, 2.16, 2.16, 1.99, 1.99, 1.05, 1.3, 1.3, 1.3, 1.7, 1.7, 1.7, 2.4, 3.79, 3.79, 4.8, 4.8, 4.8, 5.36, 5.36, 5.36, 5.36, 5.36, 4.8, 4.8, 4.8, 3.79, 4.46, 4.84, 4.84, 4.11, 4.11, 4.11, 3.79, 3.79, 3.79, 3.22, 3.22, 3.48, 3.48, 3.48, 3.48, 3.48, 3.16, 3.16, 3.16, 3.16, 3.16, 3.16, 3.16, 3.58, 3.16, 3.16, 4.0, 4.0, 3.13, 3.13, 3.07, 2.91, 5.36, 4.47, 4.47, 4.34, 4.34, 4.47, 4.92, 4.92, 4.92, 3.35, -0.0, -8.24, -10.52, -10.01, -7.78, -3.96, -1.98, 0.0, 0.0, 0.0, 0.0, 0.0, 4.92, 4.92, 4.92]}, {"header": {"dx": 0.06612293990616946, "dy": 0.0552356325346848, "nx": 98, "ny": 59, "la1": 35.046912555036876, "la2": 31.78801023549047, "lo1": -121.43107172385933, "lo2": -114.95102361305473, "refTime": "2026042017", "parameterCategory": 1, "parameterNumber": 3}, "data": [7.21, 6.79, 6.79, 6.79, 6.3, 5.88, 5.81, 5.08, 4.93, 5.02, 5.36, 5.36, 3.58, 4.02, 3.58, 4.34, 5.26, 5.7, 6.51, 6.64, 6.52, 6.28, 5.06, 3.72, 3.72, 1.84, 0.0, 0.0, -3.6, -6.64, -8.05, -4.92, -4.92, -4.47, -3.58, -3.9, -4.0, -4.0, -3.93, -4.29, 2.4, 5.58, 6.36, 5.09, 4.84, 6.13, 7.2, 6.8, 6.99, 6.6, 6.21, 5.49, 5.15, 5.21, 4.89, 4.89, 4.19, 4.47, 3.45, 2.32, 1.14, 1.55, 0.0, 0.0, 0.0, 0.0, 0.0, 0.0, 0.0, 0.0, 0.0, 0.0, 0.0, 0.0, 1.14, 1.14, 1.16, 0.0, 0.0, 0.0, -1.41, -1.41, -1.8, -2.84, 0.0, 0.0, 0.0, 0.0, 3.16, 4.34, 6.26, 7.15, 7.6, 6.71, 6.26, 5.73, 4.98, 4.89, 7.26, 6.79, 6.79, 6.79, 6.3, 6.47, 6.04, 5.4, 5.31, 5.09, 4.88, 5.81, 4.47, 3.58, 4.02, 4.47, 4.82, 6.51, 6.58, 5.94, 7.47, 7.28, 6.63, 6.63, 4.74, 3.63, 1.13, -3.16, -6.8, -3.8, -5.37, -6.26, -4.92, -5.36, -5.36, -4.47, -4.47, -4.47, -6.14, 0.0, 9.83, 8.94, 7.6, 5.26, 4.6, 5.59, 6.7, 6.32, 5.95, 5.95, 5.49, 5.84, 5.37, 4.74, 4.11, 3.63, 3.91, 3.2, 3.2, 2.12, 1.14, 0.0, 0.0, 0.0, 0.0, 0.0, 0.0, 0.0, 0.0, 0.0, 0.0, 0.0, 0.0, 0.0, 0.0, 0.0, 0.0, 0.0, 0.0, 0.0, -1.41, -1.41, -1.8, -2.84, 0.0, 0.0, 0.0, 0.0, 3.16, 4.34, 6.26, 7.15, 7.6, 6.71, 6.26, 5.73, 4.98, 4.89, 7.26, 7.21, 6.79, 6.79, 6.36, 6.47, 6.04, 6.04, 5.57, 5.09, 4.89, 4.88, 5.26, 4.02, 3.13, 3.58, 4.47, 5.36, 6.17, 7.45, 6.16, 7.06, 6.9, 7.44, 7.44, 4.89, 1.4, -4.92, -7.15, 5.69, 8.0, 4.74, 0.0, -4.8, -5.36, -6.26, -6.23, -7.01, -8.05, 8.77, 8.0, 5.81, 5.29, 5.4, 5.36, 5.72, 6.13, 5.75, 4.89, 4.74, 5.06, 5.03, 5.31, 4.75, 3.35, 2.76, 2.6, 2.8, 2.26, 2.12, 1.3, 0.0, 0.0, 0.0, -1.4, -1.27, 0.0, 0.0, 0.0, 0.0, 0.0, 0.0, -1.33, -1.25, -1.1, -1.32, -1.4, 0.0, 0.0, -2.97, -4.11, -3.16, -4.0, -4.02, -4.47, -4.47, -2.84, -1.6, 2.6, 5.81, 8.49, 8.49, 8.49, 7.6, 7.15, 5.7, 4.6, 4.89, 7.4, 7.26, 6.79, 6.79, 6.51, 6.47, 6.04, 6.04, 6.04, 5.7, 5.36, 5.31, 5.26, 4.47, 4.47, 4.47, 4.92, 5.36, 5.73, 6.02, 6.45, 6.64, 6.4, 5.49, 6.18, 6.08, 4.46, 0.0, 0.0, 8.67, 6.79, 6.45, 6.0, 5.95, 0.0, 0.0, -8.49, -8.49, 7.6, 7.85, 7.15, 5.73, 4.98, 4.29, 5.95, 5.95, 6.0, 5.01, 4.11, 3.91, 4.19, 4.14, 4.14, 4.29, 1.99, 1.83, 1.7, 1.84, 1.84, 1.14, 1.3, 0.0, 0.0, -2.53, -1.6, -1.41, -1.41, 0.0, 0.0, 0.0, -2.04, -3.3, -4.0, -3.68, -4.02, -3.4, -3.8, 0.0, 0.0, -8.94, -4.92, -4.02, -4.02, -4.66, -4.47, -4.47, -3.82, 0.0, 7.15, 9.39, 10.28, 8.67, 8.05, 7.6, 5.36, 4.47, 4.29, 4.89, 7.4, 7.4, 6.94, 6.94, 6.94, 6.47, 6.47, 6.04, 6.04, 6.16, 5.36, 5.75, 4.38, 4.47, 4.92, 5.36, 4.92, 5.36, 5.81, 6.26, 7.5, 7.94, 7.94, 7.47, 6.16, 7.45, 9.64, 9.97, 9.11, 7.5, 5.73, 5.09, 7.21, 6.2, 7.01, 6.51, 5.58, 8.06, 5.94, 7.37, 7.15, 6.45, 5.2, 3.93, 4.0, 5.4, 4.98, 4.89, 3.91, 3.22, 2.66, 3.6, 3.2, 2.6, 1.83, 1.05, 1.05, 1.05, 0.96, 1.19, 0.0, 0.0, 0.0, -1.6, -1.13, -1.08, -1.19, 0.0, 0.89, 0.0, -3.32, -8.8, -8.49, -6.26, -3.72, -4.11, -4.46, -4.8, -12.52, -6.32, -3.82, -3.9, -4.34, -4.82, -5.36, -5.36, 0.0, 5.51, 8.3, 10.52, 9.39, 7.37, 6.94, 4.47, 4.02, 4.66, 4.6, 5.21, 7.4, 7.4, 6.94, 6.94, 6.94, 6.51, 6.47, 6.04, 6.04, 6.16, 5.81, 5.33, 4.34, 3.58, 4.47, 4.92, 5.36, 5.81, 5.81, 5.81, 6.71, 7.6, 9.39, 9.39, 8.94, 9.39, 9.39, 9.83, 8.82, 8.06, 5.51, 4.98, 7.01, 6.61, 5.29, 5.59, 5.58, 4.98, 4.57, 6.21, 7.1, 7.94, 7.95, 7.4, 5.6, 6.57, 6.18, 5.06, 4.29, 3.22, 2.66, 3.2, 1.98, 1.55, 1.08, 0.96, 0.88, 1.08, 1.08, 0.0, 0.0, 0.0, 0.0, 0.0, 0.0, 0.0, 0.0, 0.0, 0.96, 2.49, 7.6, -1.95, -5.37, -4.84, -5.09, -5.36, -7.21, -7.6, -8.94, -4.8, -4.24, -4.77, -5.81, -6.79, -7.15, 0.0, 7.01, 8.85, 10.14, 9.64, 8.05, 8.05, 6.26, 4.0, 4.92, 4.4, 4.89, 6.0, 7.4, 6.97, 6.94, 6.94, 6.51, 6.47, 6.47, 6.04, 6.04, 6.04, 6.23, 5.78, 4.82, 3.58, 4.47, 4.92, 5.36, 5.81, 5.36, 4.92, 4.92, 6.26, 7.15, 8.05, 8.49, 7.6, 7.6, 7.6, 7.47, 6.21, 7.06, 5.75, 8.05, 7.15, 5.36, 5.75, 5.6, 5.72, 7.15, 6.57, 7.63, 7.6, 7.5, 8.06, 9.2, 7.96, 7.81, 6.01, 4.29, 3.76, 3.0, 2.8, 1.84, 0.0, 0.0, 0.0, 0.0, 0.0, 0.0, 0.0, 0.0, 0.0, 0.0, 0.0, 1.32, 2.97, 1.47, 0.0, 0.0, 2.73, 5.36, 3.48, 1.83, 1.19, -0.0, -3.22, -5.09, -4.02, -4.47, -7.15, -4.92, -6.71, -7.63, -9.33, -9.6, 10.52, 10.58, 10.14, 8.77, 7.89, 7.6, 8.77, 4.0, 3.22, 5.51, 4.98, 5.21, 6.4, 7.4, 6.97, 6.94, 6.94, 6.51, 6.47, 6.04, 6.04, 6.04, 6.04, 6.04, 5.79, 6.26, 5.81, 5.36, 4.92, 5.36, 5.81, 5.36, 5.36, 4.47, 4.47, 6.2, 6.26, 6.26, 6.07, 6.26, 6.07, 6.4, 6.4, 7.6, 8.05, 7.15, 6.71, 5.29, 4.85, 4.57, 4.98, 7.01, 7.6, 7.01, 6.26, 6.26, 6.51, 6.64, 7.28, 8.94, 9.42, 7.13, 5.37, 3.91, 1.99, 0.0, 0.0, 0.0, 0.0, 0.0, 0.0, 0.0, 0.0, 0.0, 0.0, 0.0, 2.16, 3.2, 3.17, 2.58, 1.4, 0.0, 1.98, 5.81, 4.98, 4.89, 4.19, 1.32, -0.0, -3.16, -3.72, -4.24, -8.06, -10.28, -8.49, -8.94, -9.54, 6.94, 10.73, 11.4, 9.83, 8.49, 7.6, 8.67, 5.01, 3.22, 3.49, 5.81, 5.6, 6.0, 6.0, 7.51, 6.94, 6.94, 6.94, 6.51, 6.47, 6.04, 6.04, 5.99, 5.57, 5.81, 5.57, 7.94, 7.15, 6.26, 6.17, 6.64, 6.64, 6.26, 6.26, 6.71, 6.51, 5.94, 6.64, 6.17, 5.64, 5.36, 5.51, 6.07, 6.26, 6.51, 6.51, 6.26, 5.81, 4.98, 4.0, 5.36, 5.81, 6.26, 6.26, 6.07, 5.36, 5.36, 5.36, 4.84, 4.98, 6.08, 7.68, 8.85, 8.15, 5.29, 0.88, 0.0, 0.0, 0.0, 0.0, -4.02, -4.47, -4.92, -2.68, -1.58, 0.0, 2.0, 2.8, 1.72, 0.89, 1.2, 0.0, 0.0, 0.0, 0.0, 4.43, 4.29, 2.66, 1.52, 0.98, -0.0, -0.0, -0.98, -4.74, -8.0, -8.33, -7.06, -5.69, 8.94, 9.33, 9.33, 8.49, 5.36, 5.09, 3.79, 2.68, 2.95, 3.93, 5.36, 5.6, 6.0, 5.94, 7.07, 7.06, 6.94, 6.51, 6.47, 6.47, 6.04, 5.99, 5.57, 5.57, 5.31, 4.8, 4.6, 4.44, 6.26, 6.17, 6.17, 6.17, 6.51, 6.71, 7.01, 7.01, 7.01, 7.01, 6.51, 5.81, 5.81, 5.81, 5.81, 5.94, 5.21, 5.51, 5.36, 5.81, 5.64, 5.36, 5.36, 4.82, 5.36, 5.36, 3.9, 3.58, 3.13, 3.39, 3.35, 3.48, 2.99, 2.64, 3.6, 4.54, 3.92, 0.0, -2.8, -2.68, -2.8, -2.8, -2.21, -3.16, -3.2, -5.81, 0.0, 9.67, 8.58, 6.01, 1.95, 0.0, -1.14, 0.0, 0.0, 0.0, 0.0, -0.0, -0.0, -0.0, 1.08, 1.8, 3.48, 2.95, 0.88, -1.66, -4.29, -7.6, -5.93, -2.82, 0.0, 4.11, 4.4, 4.0, 3.2, 2.21, 1.98, 3.16, 3.93, 4.82, 5.29, 5.6, 5.94, 5.94, 7.07, 7.06, 6.61, 6.51, 6.47, 6.04, 6.04, 5.57, 5.57, 5.09, 5.09, 4.4, 3.88, 4.11, 5.4, 4.98, 4.4, 6.0, 6.51, 7.15, 4.47, 4.77, 4.77, 4.77, 5.36, 5.36, 5.36, 5.36, 5.81, 5.09, 4.84, 4.0, 4.47, 4.92, 4.92, 5.09, 5.09, 5.09, 3.9, 3.39, 3.58, 2.68, 2.68, 3.58, 4.0, 2.95, 2.99, 1.72, 0.83, 1.84, 3.7, 4.98, -12.79, -12.07, -9.54, -8.4, -3.79, -2.84, -7.6, 0.0, 13.15, 12.89, 11.2, 7.56, 3.61, 0.0, -3.91, -7.63, -4.92, -3.58, -4.02, -5.81, -2.2, -0.0, -0.0, 1.8, 2.68, 2.95, 2.0, -0.0, -3.16, -4.82, -8.33, -4.4, -1.47, 0.0, 0.0, 0.0, 0.0, 0.0, 1.6, 2.53, 4.0, 4.82, 4.82, 4.98, 5.51, 6.17, 7.07, 7.06, 6.61, 6.6, 6.47, 6.04, 5.99, 5.7, 5.7, 5.24, 4.66, 4.6, 4.11, 3.72, 3.84, 4.29, 3.79, 3.79, 5.2, 5.81, 5.36, 2.54, 2.12, 4.02, 4.47, 4.47, 4.02, 2.24, 3.82, 4.92, 4.66, 3.82, 3.82, 4.34, 4.98, 4.4, 3.6, 3.9, 3.82, 4.02, 4.02, 4.02, 3.13, 4.47, 4.66, 4.57, 5.21, 4.43, 4.43, 7.44, 12.72, 14.84, 17.43, 17.88, 0.0, 0.0, -6.6, -7.9, -0.0, 11.21, 12.96, 11.84, 10.62, 8.15, 8.44, 7.78, -10.73, -8.72, -6.8, -5.36, -3.58, -3.58, -3.9, -1.98, -0.0, 1.08, 1.08, 2.2, 1.8, -0.0, -2.23, -3.16, -6.71, -7.87, -5.29, -3.39, -3.25, -3.82, -2.06, 0.0, 0.0, 2.2, 2.6, 3.82, 4.34, 4.98, 4.98, 5.73, 7.06, 6.61, 6.61, 6.6, 6.16, 6.16, 5.7, 5.7, 5.24, 5.24, 4.77, 4.34, 4.11, 4.0, 4.22, 4.29, 4.46, 4.11, 4.11, 4.11, 5.81, 5.81, 4.11, 4.8, 4.8, 4.8, 4.11, 4.11, 3.48, 3.22, 3.6, 4.02, 3.82, 4.0, 4.0, 4.0, 3.82, 4.02, 5.36, 4.47, 3.58, 4.02, 4.34, 4.82, 5.81, 6.26, 6.71, 6.51, 8.94, 8.94, 8.94, 11.18, 10.62, 9.39, 9.39, 8.94, 11.03, 0.0, 2.6, 8.4, 9.83, 10.52, 9.4, 10.46, 13.09, 12.96, 13.44, -0.0, -9.3, -8.72, -7.89, -4.4, -2.23, -0.0, 0.88, 0.96, -0.0, -0.0, -0.0, -0.0, -0.0, -1.27, -3.48, -5.2, -7.51, -6.44, -7.59, -8.03, -7.15, -5.69, -5.37, 0.0, 1.6, 3.2, 3.58, 4.34, 4.82, 5.73, 7.06, 6.61, 6.6, 6.16, 6.16, 6.16, 5.7, 5.7, 5.24, 4.8, 4.77, 4.34, 4.3, 4.24, 4.57, 4.4, 4.46, 5.51, 5.6, 4.74, 7.15, 6.71, 0.0, 0.0, 0.0, 0.0, 0.0, 1.98, 1.84, 3.79, 3.93, 3.9, 4.47, 3.39, 3.58, 4.02, 4.02, 4.47, 4.02, 3.58, 4.02, 4.34, 5.09, 5.2, 5.36, 5.81, 4.92, 6.26, 6.26, 6.26, 6.26, 6.94, 5.51, 5.81, 5.36, 3.9, 4.84, 6.01, 12.96, 6.8, 8.33, 8.94, 11.06, 12.52, 11.62, 11.57, 11.57, 9.83, 9.83, -0.0, -0.0, 6.64, 6.32, 7.2, 6.6, 2.76, -0.0, -0.0, -0.0, -0.0, -0.0, -0.0, -0.0, -0.0, -6.26, -6.01, -10.28, -8.94, -7.6, -7.63, -7.2, -6.26, 0.0, 2.84, 4.47, 4.02, 4.02, 5.26, 6.68, 6.61, 6.6, 6.16, 6.16, 5.7, 5.7, 5.26, 5.24, 4.8, 4.44, 4.44, 4.43, 4.41, 4.82, 4.77, 5.2, 5.51, 5.6, 6.26, 6.71, 6.71, 0.0, 0.0, 0.0, 0.0, 0.0, 0.0, 1.98, 4.11, 4.84, 3.48, 4.0, 4.02, 4.02, 3.6, 3.6, 1.9, 4.02, 3.13, 3.82, 4.4, 4.0, 4.0, 4.0, 4.47, 4.92, 5.36, 5.36, 5.81, 5.36, 4.66, 4.92, 4.92, 4.47, 4.0, 3.16, 2.84, 6.0, 8.49, 6.45, 6.71, 7.15, 7.15, 8.05, 8.85, 8.85, 8.85, 7.47, 7.6, 9.77, 11.14, 10.7, 10.6, 9.35, 7.54, 3.48, -0.0, -1.98, -2.26, -0.0, -0.0, -0.0, -0.0, 5.6, 4.8, -0.0, -6.01, -7.37, -8.49, -8.49, -7.15, -5.36, 0.0, 0.0, 3.58, 4.34, 4.34, 6.68, 6.68, 6.16, 6.16, 6.16, 5.7, 5.7, 5.24, 5.24, 4.89, 4.44, 4.43, 4.43, 4.85, 4.82, 4.77, 5.2, 5.09, 5.81, 6.26, 6.26, 6.71, 0.0, 0.0, 0.0, 0.0, 0.0, 0.0, 0.0, 0.0, 2.8, 4.11, 2.98, 3.16, 3.6, 2.98, 2.23, 0.99, 4.02, 4.02, 3.82, 2.53, 2.84, 2.84, 3.6, 4.0, 4.92, 4.92, 4.92, 4.92, 4.92, 4.92, 4.92, 4.92, 4.66, 4.4, 4.0, 3.6, 5.09, 6.07, 4.47, 4.47, 4.47, 4.47, 5.36, 5.81, 4.47, 6.08, 7.89, 9.39, 9.92, 10.62, 10.25, 9.83, 9.39, 8.45, 8.49, -0.0, -4.96, -5.69, -3.8, -3.6, -1.52, -0.0, -0.0, 4.43, 4.8, -0.0, -5.09, -6.71, -7.6, -5.51, -4.47, 0.0, 0.0, 4.47, 2.97, 2.97, 6.68, 6.68, 6.23, 6.16, 5.7, 5.7, 5.26, 5.33, 4.89, 4.88, 4.44, 4.43, 4.43, 4.92, 4.92, 4.92, 5.2, 5.36, 5.81, 0.0, 0.0, 6.26, 0.0, 0.0, -5.06, -6.4, -5.37, -3.2, 0.0, 0.0, 0.0, 0.0, 1.84, 2.4, 2.98, 3.22, 3.16, 4.0, 3.58, 3.6, 4.0, 3.39, 3.6, 2.98, 4.0, 4.0, 4.24, 4.47, 4.47, 4.47, 4.47, 4.47, 4.47, 4.02, 3.6, 4.0, 4.0, 4.0, 4.0, 4.47, 4.92, 4.02, 3.2, 2.84, 3.16, 1.98, 2.2, 5.6, 9.39, 10.41, 9.89, 8.14, 8.45, 8.49, 8.01, 7.85, 9.54, 11.45, -0.0, -5.95, -4.4, -3.65, -1.75, -0.0, -0.0, -0.0, 4.92, -0.0, -3.48, -4.74, -5.69, -6.4, -4.92, -5.36, -7.15, -0.0, 2.53, 2.53, 6.68, 6.23, 6.23, 6.23, 5.78, 5.78, 5.34, 5.33, 4.89, 4.88, 4.44, 4.43, 4.47, 4.47, 4.92, 4.92, 5.36, 5.36, 5.36, 0.0, -0.0, 6.26, 4.43, 0.0, -6.0, -7.15, -7.6, -5.06, -5.06, -3.2, 0.0, 0.0, 0.0, 4.11, 3.48, 3.35, 4.34, 4.92, 4.92, 4.92, 5.09, 5.36, 4.66, 4.66, 4.24, 4.47, 4.02, 4.02, 4.02, 4.02, 4.47, 4.47, 4.47, 3.16, 2.84, 2.53, 3.6, 4.0, 4.8, 5.2, 4.11, 3.48, 0.0, 0.0, 0.0, 1.13, 0.98, 5.09, 7.94, 8.06, 7.01, 5.51, 6.17, 6.71, 7.1, 6.7, 7.12, 10.65, 12.07, 11.18, 7.51, 4.37, 2.69, -0.0, -0.0, -0.0, 2.48, 1.6, 2.2, -0.0, -3.72, -6.7, -6.26, -6.26, -4.43, -2.2, -0.0, -0.0, 6.68, 6.23, 6.23, 5.79, 5.78, 5.78, 5.33, 4.89, 4.89, 4.44, 4.44, 4.47, 4.47, 4.47, 4.92, 4.47, 5.36, 4.82, 4.46, 0.0, -0.0, 5.6, 5.81, 3.2, 4.47, 0.0, 0.0, 0.0, 0.0, 0.0, 0.0, 0.0, 0.0, 2.8, 2.8, 2.98, 4.84, 5.6, 3.9, 4.92, 4.34, 4.34, 5.09, 4.92, 4.47, 4.02, 4.02, 4.02, 4.47, 4.47, 4.47, 4.47, 4.47, 3.16, 3.48, 4.92, 4.47, 3.48, 0.0, 0.0, 0.0, 0.0, 0.0, 0.0, 0.0, 0.0, 0.0, 2.23, 3.9, 4.92, 4.4, 6.32, 9.96, 10.79, 8.4, 5.6, 6.45, 7.1, 8.89, 9.39, 6.99, 5.37, 3.4, 2.49, 1.32, 1.14, 0.96, 1.83, 4.84, 4.84, -0.0, -4.74, -6.79, -6.26, -3.79, -2.2, -0.0, -0.0, 6.23, 6.23, 6.23, 5.78, 5.78, 5.34, 5.33, 4.89, 4.89, 4.47, 4.47, 4.47, 4.47, 4.92, 4.92, 4.92, 4.92, 4.92, 3.9, 3.58, 4.66, 6.07, 5.81, 3.82, 4.24, 4.92, 4.02, 5.81, 5.2, 0.0, 0.0, 0.0, 0.0, 0.0, 0.0, 0.0, 1.98, 3.47, 5.21, 4.84, 4.92, 4.47, 4.47, 4.02, 3.6, 4.0, 4.02, 4.47, 4.47, 4.47, 4.47, 4.47, 4.47, 3.48, 2.4, 3.13, 0.0, 0.0, 0.0, 0.0, 0.0, 0.0, 0.0, 0.0, 0.0, 0.0, 1.13, 1.08, 1.99, 1.72, 1.84, 1.07, 1.51, 4.12, 8.05, 8.94, 7.47, 8.38, 8.49, 8.05, 7.74, 6.01, 2.54, 1.4, -0.0, -0.0, -0.0, 0.81, 3.58, 4.57, 4.24, -0.0, -3.4, -6.0, -4.11, -2.6, -0.0, -0.0, 6.23, 6.23, 5.79, 5.78, 5.78, 5.34, 5.36, 4.92, 4.92, 4.47, 4.47, 4.47, 4.47, 4.92, 4.92, 4.92, 4.92, 4.92, 5.36, 4.47, 5.36, 5.81, 5.36, 5.51, 5.58, 6.0, 5.21, 4.84, 3.79, 2.2, 2.2, 0.0, 0.0, 0.0, 0.0, 0.0, 0.0, 0.0, 1.84, 1.84, 2.4, 3.79, 4.8, 4.4, 4.0, 3.48, 4.0, 4.47, 4.92, 4.92, 4.47, 4.02, 4.47, 4.0, 4.4, 2.21, 0.0, -5.81, -5.36, 0.0, 0.0, 0.0, 0.0, 0.0, 1.58, 1.9, 1.4, 0.98, 1.99, 2.51, 1.75, 0.0, -2.4, -1.89, 3.79, 11.9, 12.52, 12.07, 10.28, 8.05, 8.05, 7.6, 4.37, -0.0, -0.0, -0.96, -0.0, 1.7, 4.01, 4.8, 4.98, 4.84, 3.0, -2.4, -3.0, -0.0, -0.0, -0.0, 6.26, 5.81, 5.81, 5.81, 5.36, 5.36, 4.92, 4.92, 4.92, 4.47, 4.47, 4.47, 4.47, 4.92, 4.92, 4.92, 5.36, 5.36, 5.81, 6.71, 6.58, 5.64, 5.09, 5.51, 4.43, 4.43, 4.43, 3.22, 2.98, 1.55, 1.55, 1.41, 1.41, 0.0, 0.0, 0.0, 0.0, 0.0, 0.0, 0.0, 0.0, 1.41, 1.84, 3.22, 3.79, 2.68, 2.2, 3.16, 4.92, 4.47, 4.02, 4.02, 4.47, 3.16, 3.16, 2.2, 0.0, -4.43, -5.81, -3.58, -2.4, -2.68, 0.0, 0.0, 3.13, 2.84, 1.6, 1.13, 2.0, 3.0, 2.66, 0.0, -8.0, -0.0, 6.7, 8.94, 9.48, 11.88, 11.87, 10.28, 8.05, 7.15, 7.21, 6.08, 3.4, 3.0, 3.22, 3.72, 3.47, 5.37, 5.37, 6.07, 6.0, -0.0, -2.2, -0.0, -0.0, -0.0, 6.26, 6.26, 5.81, 5.36, 5.36, 5.36, 4.92, 4.92, 4.47, 4.47, 4.47, 4.47, 4.47, 4.92, 4.92, 4.92, 5.36, 5.36, 5.81, 6.26, 6.07, 6.07, 5.51, 5.51, 5.2, 4.11, 4.43, 1.84, 1.84, 1.7, 1.7, 1.7, 1.7, 1.7, 1.55, 0.0, 0.0, 0.0, 0.0, 0.0, 0.0, 1.41, 1.41, 2.6, 2.4, 2.53, 1.55, 3.16, 4.47, 4.47, 4.02, 4.47, 4.47, 3.16, 3.16, 2.0, 1.27, 0.0, -4.47, -3.58, -3.13, -2.68, 0.0, 0.0, 0.0, 2.84, 0.0, 1.4, 1.27, 2.0, 4.84, 7.15, 1.32, 1.7, 1.7, 4.14, 6.71, 9.17, 12.87, 12.96, 9.83, 7.6, 6.71, 6.64, 6.36, 5.2, 4.89, 4.19, 1.98, -0.0, 2.8, 4.11, 5.2, -0.0, -2.0, -0.0, 2.2, 2.2, 5.81, 5.81, 5.81, 5.36, 5.36, 4.92, 4.92, 4.92, 4.47, 4.47, 4.47, 4.47, 4.92, 4.92, 4.92, 5.36, 5.36, 5.36, 5.81, 6.26, 6.07, 6.07, 5.94, 5.94, 5.94, 4.43, 4.43, 4.11, 1.84, 1.84, 1.84, 1.84, 1.41, 1.41, 1.41, 1.41, 0.0, 0.0, 0.0, 0.0, 0.0, 1.3, 1.3, 1.3, 2.2, 2.0, 3.79, 4.4, 4.47, 4.92, 4.4, 4.4, 3.16, 2.84, 2.84, 1.8, 2.23, 0.98, 0.0, -4.47, -3.58, -2.68, 0.0, 0.0, 0.0, 2.53, 1.2, 0.0, 0.0, 0.0, 2.0, 6.4, 1.54, -0.0, -0.0, 1.55, 2.54, 7.59, 10.41, 12.35, 11.62, 9.29, 7.52, 7.15, 6.2, 4.98, 4.11, 1.99, -0.0, -0.95, -0.0, 1.19, 1.41, -0.0, -0.0, -0.0, 2.2, 2.2, 5.81, 5.81, 5.36, 5.36, 5.36, 5.36, 4.92, 4.92, 4.92, 4.92, 4.92, 4.92, 4.92, 4.92, 4.92, 5.36, 5.36, 5.36, 5.81, 5.7, 6.07, 6.07, 6.07, 5.94, 5.94, 5.21, 4.43, 4.43, 4.43, 1.98, 1.98, 1.98, 1.98, 1.41, 1.41, 1.52, 1.52, 0.0, 0.0, 0.0, 0.0, 1.3, 1.19, 1.55, 1.55, 1.55, 2.98, 3.79, 4.8, 4.84, 3.79, 4.11, 4.0, 2.84, 2.53, 2.53, 1.8, 2.23, 2.2, 0.0, 0.0, -1.9, -0.0, 0.0, 4.02, 1.4, 1.4, 0.0, 0.0, 0.0, 2.0, 4.47, 2.83, -3.68, -1.98, -0.0, 0.79, 2.73, 6.7, 8.82, 10.68, 10.32, 9.29, 8.94, 5.81, 4.57, 3.48, 1.19, -0.96, -1.7, -0.0, -0.0, 0.96, -0.0, -0.0, -0.0, 2.84, 2.84, 5.36, 5.36, 5.36, 5.36, 5.36, 4.92, 4.92, 4.92, 4.92, 4.92, 4.92, 4.92, 4.92, 4.92, 4.92, 5.29, 5.29, 5.26, 5.7, 5.7, 5.64, 6.07, 6.07, 6.07, 5.21, 5.21, 4.43, 4.43, 4.43, 1.98, 1.98, 1.98, 1.98, 1.98, 1.52, 1.52, 1.52, 1.52, 0.0, 1.41, 1.41, 1.7, 1.7, 1.7, 1.55, 1.55, 1.7, 3.22, 3.22, 2.6, 2.6, 2.73, 3.48, 4.4, 3.16, 1.8, 2.53, 1.8, 1.55, 3.79, 2.84, 0.0, -0.0, 0.0, 2.68, 1.2, 1.13, 1.27, 0.0, 0.0, 0.98, 5.09, 6.51, -0.0, -3.82, -1.77, -0.0, 1.83, 3.22, 5.93, 8.93, 9.7, 10.32, 8.85, 5.75, 5.73, 4.77, 4.0, -0.0, 1.41, 1.99, 0.78, -0.0, -0.0, -0.0, -0.0, 2.53, 2.53, 5.36, 5.36, 5.36, 5.36, 4.92, 4.92, 4.92, 4.92, 4.92, 4.92, 4.92, 4.92, 4.92, 4.87, 5.29, 5.29, 5.29, 5.26, 5.7, 5.7, 5.7, 5.64, 6.07, 6.07, 5.6, 5.21, 5.21, 4.43, 4.43, 3.47, 1.98, 1.84, 1.98, 1.98, 1.98, 0.0, 0.0, 0.0, 0.0, 0.0, 1.41, 1.84, 1.7, 1.7, 1.7, 1.7, 1.7, 1.84, 2.6, 2.6, 2.6, 2.2, 3.16, 2.53, 3.16, 2.23, 2.84, 1.6, 2.23, 2.2, 2.98, 1.9, 0.0, 0.0, 0.0, 1.2, 1.13, 0.98, 0.0, 0.0, 1.27, 2.84, 5.2, 6.71, 7.63, 3.82, 1.45, -0.0, 1.99, 3.47, 5.72, 9.46, 9.32, 7.2, 5.86, 6.26, 6.2, 4.47, 4.34, 4.98, 4.11, 2.29, 0.96, -0.0, -0.0, -0.0, 4.47, 4.47, 5.36, 5.36, 5.36, 5.36, 4.92, 4.92, 4.92, 4.92, 4.92, 4.88, 4.87, 4.87, 4.87, 4.87, 5.29, 5.29, 5.29, 5.26, 5.7, 5.7, 5.7, 5.64, 5.64, 5.64, 5.2, 4.84, 4.84, 4.84, 4.84, 3.22, 3.22, 3.22, 1.84, 1.84, 1.84, 0.0, 0.0, 0.0, 0.0, 0.0, 0.0, 1.7, 1.3, 0.0, 0.0, -2.4, -2.4, 0.0, 2.6, 2.6, 2.4, 2.2, 2.0, 1.6, 2.21, 3.16, 3.16, 1.8, 1.13, 1.08, 1.19, 2.23, 2.68, 3.13, 2.68, 0.0, 0.0, 0.0, 0.0, 0.0, 1.08, 1.13, 4.0, 4.92, 6.26, 6.64, 6.52, -0.0, -0.0, 1.84, 3.55, 7.14, 9.08, 6.91, 6.99, 7.1, 6.26, 6.2, 5.6, 6.0, 4.89, 2.6, 0.96, -0.0, -0.0, 3.79, 4.8, 4.8, 5.36, 5.36, 5.36, 5.36, 4.89, 4.88, 4.88, 4.88, 4.88, 4.88, 4.87, 4.87, 4.87, 4.87, 5.29, 5.29, 5.29, 5.26, 5.7, 5.7, 5.7, 5.64, 5.64, 5.64, 5.2, 5.2, 4.84, 4.84, 4.11, 4.11, 3.22, 3.22, 3.22, 1.84, 1.84, 1.84, 0.0, 0.0, 0.0, 0.0, 0.0, 0.0, 0.0, 0.0, 0.0, -3.79, -5.36, -5.81, 0.0, 0.0, 0.0, 0.0, 0.0, 2.53, 2.21, 2.21, 3.16, 3.16, 0.98, 1.08, 1.08, 2.23, 3.39, 3.58, 2.68, 1.27, 0.0, -0.96, -1.83, -1.08, 0.0, 2.23, 4.92, 5.21, 6.9, 8.06, 7.15, 6.4, -0.0, -0.0, 1.84, 5.75, 8.61, 8.35, 6.82, 6.4, 6.4, 6.21, 5.58, 5.6, 5.6, 3.63, 2.53, 1.05, 3.97, 6.32, 7.45, 7.45, 5.33, 5.33, 5.33, 5.33, 4.89, 4.88, 4.88, 4.88, 4.88, 4.88, 4.87, 4.87, 5.31, 5.31, 5.29, 5.29, 5.29, 5.26, 5.7, 5.7, 5.7, 5.7, 5.64, 5.64, 5.64, 5.2, 5.2, 4.84, 4.11, 4.11, 4.11, 3.22, 3.22, 3.22, 1.84, 1.84, 0.0, 0.0, 0.0, 0.0, 0.0, 0.0, 0.0, 1.19, 0.96, 0.0, 0.0, -0.0, 0.0, 0.0, 0.0, 0.0, 0.0, 0.0, 0.0, 1.9, 2.21, 1.8, 2.2, 2.0, 2.0, 2.53, 3.39, 3.58, 2.21, 2.23, 2.0, 0.0, -3.58, -3.16, 0.0, 3.35, 5.36, 1.73, 5.06, 9.97, 10.14, 8.05, 4.74, -0.96, -0.0, 3.99, 7.43, 7.82, 7.27, 8.34, 7.58, 5.49, 4.54, 4.66, 4.66, 4.29, 2.68, 2.2, 4.11, 5.75, 7.31, 7.31, 5.33, 5.33, 5.33, 5.33, 5.32, 4.88, 4.88, 4.88, 4.88, 4.88, 4.87, 4.87, 5.31, 5.29, 5.29, 5.29, 5.29, 5.26, 5.7, 5.7, 5.7, 5.7, 5.64, 5.64, 5.64, 5.2, 5.2, 4.11, 3.22, 2.6, 5.2, 4.11, 3.22, 3.22, 1.84, 1.41, 1.84, 0.0, 0.0, 0.0, 0.0, 0.0, 0.0, 0.0, 0.96, 1.41, 4.47, 4.8, 4.92, 0.0, 0.0, 0.0, 0.0, 0.0, 0.0, 2.68, 2.68, 2.53, 1.8, 2.0, 2.23, 2.53, 3.39, 2.53, 1.98, 2.23, 2.0, 2.2, 0.0, -3.13, 2.24, 4.0, 3.82, 2.39, 2.82, 5.29, 10.38, 10.28, 8.67, -0.0, -1.4, -0.0, 3.98, 7.18, 7.14, 7.27, 8.37, 5.59, 4.65, 4.98, 5.94, 5.4, 4.65, 3.79, 5.37, 6.4, 7.31, 7.31, 5.33, 5.33, 5.33, 5.33, 5.32, 4.88, 4.88, 4.88, 4.88, 4.87, 4.87, 4.87, 5.31, 5.29, 5.29, 5.29, 5.29, 5.26, 5.7, 5.7, 5.7, 5.7, 5.64, 5.64, 5.64, 5.64, 5.2, 4.29, 2.84, 4.8, 5.2, 5.2, 3.22, 3.22, 1.84, 1.41, 1.41, 0.0, 0.0, 0.0, 0.0, 0.0, 0.0, 0.0, 0.0, 1.3, 4.11, 4.8, 3.48, 0.0, 0.0, 0.0, 0.0, 0.0, 2.68, 2.68, 2.24, 2.68, 2.8, 1.98, 2.23, 2.53, 2.21, 1.74, 1.27, 0.98, 1.08, 1.7, 2.0, 4.02, 3.58, 3.35, 3.79, 4.47, 3.82, 3.25, 3.0, 7.2, 8.8, 2.71, -3.98, -1.75, 1.07, 4.6, 6.7, 7.85, 10.79, 10.73, 6.64, 5.01, 4.98, 5.09, 4.66, 4.22, 5.75, 6.4, 7.12, 7.12, 5.33, 5.33, 5.33, 5.32, 5.32, 5.32, 4.88, 4.88, 4.87, 4.87, 4.87, 5.31, 5.31, 5.31, 5.29, 5.29, 5.29, 5.7, 5.7, 5.7, 5.7, 5.64, 5.64, 5.64, 5.64, 5.64, 5.2, 5.2, 4.65, 3.35, 5.09, 3.79, 3.79, 2.98, 1.7, 1.7, 1.3, 1.3, 0.0, 0.0, 0.0, 0.0, 0.0, 0.0, 0.0, 0.0, 1.84, 1.84, 0.0, 0.0, 0.0, 0.0, 0.0, 0.0, 0.0, 3.13, 2.21, 2.53, 3.58, 3.16, 2.98, 1.2, 1.6, 1.13, 0.98, 0.0, 0.0, 1.08, 1.7, 3.22, 3.93, 2.48, 1.08, 2.53, 6.64, 2.54, -0.0, 0.98, 2.2, 2.17, -2.39, -3.11, -0.0, 4.4, 6.63, 9.31, 11.52, 12.79, 9.3, 4.74, 4.11, 4.98, 5.09, 4.8, 5.34, 6.4, 6.7, 6.7, 5.24, 5.24, 5.24, 5.2, 5.2, 5.2, 5.2, 5.2, 4.73, 4.73, 4.87, 5.31, 5.31, 5.31, 5.29, 5.29, 5.29, 5.7, 5.7, 5.7, 5.7, 5.64, 5.64, 5.64, 5.64, 5.64, 5.64, 4.84, 4.84, 4.84, 4.46, 3.79, 3.79, 2.98, 1.7, 1.7, 1.7, 1.3, 0.0, 0.0, 0.0, 0.0, 0.0, 0.0, 0.0, 0.0, 0.0, 0.0, 0.0, 0.0, 0.0, 0.0, 0.0, 0.0, 0.0, 0.0, 2.84, 2.53, 3.16, 0.0, 1.8, 0.0, 0.0, 0.0, 0.0, 1.13, 1.13, 1.27, 1.7, 2.98, 2.95, 1.7, 0.0, 1.84, 9.75, 12.39, -0.0, -1.63, -0.0, -0.0, -0.0, -0.0, 3.39, 6.97, 8.1, 10.12, 10.75, 11.8, 9.67, 5.69, 3.22, 3.79, 4.6, 4.8, 5.34, 5.75, 6.28, 6.28, 5.24, 5.24, 5.24, 5.2, 5.2, 5.2, 5.2, 5.16, 5.16, 4.73, 5.16, 5.31, 5.31, 5.29, 5.29, 5.29, 5.29, 5.7, 5.7, 5.7, 5.7, 5.64, 5.64, 5.64, 5.64, 5.64, 5.51, 4.84, 4.84, 4.84, 4.46, 3.79, 3.79, 2.98, 1.7, 1.7, 1.7, 1.7, 0.0, 0.0, 0.0, 0.0, 0.0, 0.0, 0.0, 0.0, 0.0, 0.0, 0.0, 0.0, 0.0, 0.0, 0.0, 0.0, 0.0, 0.0, 0.0, -0.0, -0.0, 0.0, 1.6, 0.0, 0.0, 0.0, 0.0, 1.8, 2.23, 2.23, 1.8, 2.0, 2.0, 1.7, 0.0, 0.0, 2.71, 6.94, 0.0, -8.68, -2.81, -0.0, -0.0, -0.0, 3.68, 6.7, 8.85, 9.8, 11.44, 10.04, 7.44, 4.22, 3.47, 2.4, 3.48, 3.84, 4.84, 5.82, 6.7, 6.7, 5.67, 5.67, 5.24, 5.2, 5.2, 5.2, 5.2, 5.16, 5.16, 5.16, 5.16, 5.16, 5.31, 5.29, 5.29, 5.29, 5.73, 5.7, 5.7, 5.7, 5.7, 5.64, 5.64, 5.64, 5.64, 5.64, 5.51, 5.51, 4.84, 4.84, 3.79, 3.79, 3.79, 3.79, 1.7, 1.7, 1.7, 1.7, 0.0, 0.0, 0.0, 0.0, 0.0, -1.7, -1.7, -1.7, 0.0, 0.0, 0.0, 0.0, 0.0, 0.0, 0.0, 0.0, 0.0, 0.0, 0.0, 0.0, -0.0, 0.0, 0.0, 0.0, 0.0, 0.0, 0.0, 0.0, 1.27, 0.98, 0.98, 0.98, 1.7, 1.08, 1.52, 0.0, 0.0, 7.27, 10.73, -0.0, -0.0, -0.0, -0.0, -0.0, 2.54, 6.01, 8.0, 8.0, 7.6, 6.0, 5.58, 4.74, 2.98, 2.4, 2.0, 3.48, 5.59, 6.91, 6.8, 6.8, 5.67, 5.67, 5.64, 5.2, 5.2, 5.2, 5.2, 5.16, 5.16, 5.16, 5.16, 5.16, 5.16, 5.29, 5.29, 5.29, 5.7, 5.7, 5.7, 5.7, 5.7, 5.64, 5.64, 5.64, 5.64, 5.51, 5.51, 5.51, 5.51, 4.84, 3.79, 3.79, 3.79, 3.79, 1.7, 1.7, 1.7, 0.0, 0.0, 0.0, 0.0, 0.0, 0.0, -1.41, -3.79, -2.4, -1.7, 0.0, 0.0, -1.84, -1.84, 0.0, 0.0, 0.0, 0.0, 0.0, 0.0, 0.0, 0.0, 0.0, 0.0, 0.0, 0.0, 0.0, 1.4, 0.0, 0.0, 0.0, 0.0, 0.0, 0.98, 1.08, 0.0, 0.0, -0.0, 2.54, 3.47, 5.36, 2.28, -0.0, -0.0, -0.0, 1.55, 3.72, 6.07, 6.58, 6.0, 4.84, 4.46, 3.48, 2.48, 2.2, 1.99, 4.02, 5.03, 6.87, 7.28, 7.28, 5.67, 5.67, 5.64, 5.64, 5.2, 5.2, 5.16, 5.16, 5.16, 5.16, 5.16, 5.16, 5.16, 5.29, 5.29, 5.29, 5.29, 5.7, 5.7, 5.7, 5.7, 5.64, 5.64, 5.64, 5.64, 5.51, 5.51, 5.51, 5.51, 4.8, 3.79, 3.79, 3.79, 3.79, 2.4, 1.7, 1.7, 0.0, 0.0, 0.0, 0.0, 0.0, 0.0, 0.0, -2.4, -5.2, -3.79, -1.7, -1.7, -1.84, -1.84, -1.7, -1.55, 0.0, 0.0, 0.0, 0.0, 0.0, 0.0, 0.0, 0.0, 0.0, 0.0, 0.0, 0.0, 0.0, 0.0, 0.0, 1.13, 1.13, 0.98, 0.0, 0.0, 0.0, -0.0, -0.0, 1.99, 2.49, 1.76, -0.0, -1.84, -0.0, 3.72, 4.0, 6.07, 6.07, 6.0, 4.84, 4.46, 3.48, 2.73, 2.4, 2.66, 4.83, 5.31, 5.15, 5.37, 7.28, 5.67, 5.67, 5.64, 5.64, 5.2, 5.2, 5.16, 5.16, 5.16, 5.16, 5.16, 5.16, 5.16, 5.09, 5.29, 5.29, 5.29, 5.26, 5.7, 5.7, 5.7, 5.64, 5.64, 5.64, 5.64, 5.51, 5.51, 5.51, 5.2, 4.8, 4.8, 3.79, 3.79, 2.4, 2.4, 1.7, 1.7, 0.0, 0.0, 0.0, 0.0, 0.0, 0.0, 0.0, 0.0, -5.2, -5.2, -3.79, -1.7, -1.7, -1.7, -1.7, -1.55, -1.41, -1.27, -1.27, 0.0, 0.0, 0.0, 0.0, 0.0, 0.0, 0.0, 0.0, 0.0, 0.0, 0.0, 1.13, 1.13, 1.13, 0.0, 0.0, 0.0, 2.84, -0.0, -2.06, -0.0, -0.0, -0.0, -0.0, -0.0, -0.0, 2.8, 4.8, 5.64, 5.09, 4.09, 4.46, 3.48, 3.48, 1.7, 1.52, 1.32, 3.4, 4.29, 4.19, 4.43, 5.37, 5.67, 5.67, 5.64, 5.64, 5.64, 5.64, 5.16, 5.16, 5.16, 5.16, 5.16, 5.16, 5.09, 5.09, 5.29, 5.29, 5.29, 5.26, 5.7, 5.7, 5.64, 5.64, 5.64, 5.64, 5.64, 5.51, 5.51, 5.51, 5.2, 4.8, 4.8, 4.8, 3.79, 2.4, 2.4, 1.7, 1.7, 0.0, 0.0, 0.0, 0.0, 0.0, 0.0, 0.0, 0.0, 0.0, -5.36, -3.48, -2.2, -1.55, -1.55, -1.55, -1.41, -1.27, -1.27, -1.27, -1.27, -1.27, -0.87, -1.13, 0.0, 0.0, 0.0, 0.0, 0.0, 0.0, 0.0, 1.8, 1.13, 0.98, 0.0, 0.0, 0.0, 1.7, 2.53, -0.0, -0.0, -1.91, -1.84, -2.2, -0.87, 0.98, 3.22, 5.06, 5.6, 4.24, 3.72, 3.16, 3.48, 1.55, 1.55, -0.0, 0.96, 0.96, 2.4, 3.22, 4.19, 4.19, 5.67, 5.67, 5.64, 5.64, 5.64, 5.64, 5.59, 5.16, 5.16, 5.16, 5.16, 5.16, 5.09, 5.09, 5.09, 5.29, 5.29, 5.26, 5.7, 5.7, 5.64, 5.64, 5.64, 5.64, 5.51, 5.51, 5.51, 5.51, 5.2, 5.2, 4.8, 4.8, 3.79, 2.4, 2.4, 2.4, 0.0, 0.0, 0.0, 0.0, 0.0, 0.0, -1.3, -1.3, 0.0, 0.0, 0.0, 0.0, -2.0, -1.55, -1.41, -1.41, -1.27, -1.27, -1.13, -1.13, -1.13, -1.27, -0.87, -0.87, -0.87, 0.0, 0.0, 0.0, 0.0, 0.0, 0.0, 0.0, 0.0, 0.0, 0.0, 0.0, 0.0, 0.88, 3.22, 4.47, 2.54, -2.37, -8.05, -8.85, -3.25, 5.95, 7.54, 8.85, 7.27, 4.46, 3.72, 2.48, 2.48, 1.55, 1.55, -0.0, -0.0, -0.0, 3.49, 3.91, 3.91, 3.91, 5.67, 5.67, 5.64, 5.64, 5.64, 5.64, 5.59, 5.16, 5.16, 5.16, 5.16, 5.16, 5.09, 5.09, 5.09, 5.29, 5.29, 5.26, 5.7, 5.7, 5.64, 5.64, 5.64, 5.64, 5.51, 5.51, 5.51, 5.51, 5.2, 5.2, 4.8, 3.79, 3.79, 3.79, 2.4, 2.4, 0.0, 0.0, 0.0, 0.0, 0.0, 0.0, -1.3, -1.3, -1.41, 0.0, 0.0, 0.0, -2.4, -1.55, -1.55, -1.55, -1.27, -1.27, -1.13, -1.13, -1.13, -1.13, -0.98, -0.87, -0.87, -0.98, 0.0, 2.0, 0.0, 0.0, 0.0, 0.0, 0.0, 0.0, 0.0, 0.0, 0.0, 0.96, 2.2, 3.48, 4.09, 10.73, -6.2, -10.43, -0.0, 11.7, 8.51, 7.59, 6.97, 4.56, 3.16, 2.48, 1.19, 1.55, 1.55, 1.55, -0.0, 1.3, 2.6, 3.76, 3.76, 3.76, 5.64, 5.64, 5.64, 5.64, 5.64, 5.64, 5.64, 5.16, 5.16, 5.16, 5.16, 5.16, 5.09, 5.09, 5.09, 5.29, 5.29, 5.26, 5.26, 5.7, 5.64, 5.64, 5.64, 5.64, 5.51, 5.51, 5.51, 5.51, 5.2, 5.2, 4.8, 3.79, 3.79, 3.79, 2.4, 0.0, 0.0, 0.0, 0.0, 0.0, 0.0, -1.7, -1.7, -1.3, -1.3, -1.3, -1.3, -1.7, -1.7, -1.7, -1.7, -1.7, -1.55, -1.27, -1.98, -1.98, -1.98, -2.23, -0.98, -0.98, -1.6, -1.27, 0.0, 1.13, 1.8, 0.0, 0.0, 0.0, 0.0, 0.0, 0.0, 0.0, 1.08, 0.96, 2.2, 3.22, 2.99, 2.99, 5.2, 9.48, 11.7, 18.78, 6.81, 7.0, 6.44, 5.29, 3.8, 2.2, 1.08, 1.08, -0.0, -0.0, -0.0, -0.0, 2.4, 3.49, 3.49, 3.49, 5.64, 5.64, 5.64, 5.64, 5.64, 5.64, 5.64, 5.16, 5.16, 5.16, 5.16, 5.16, 5.09, 5.09, 5.09, 5.29, 5.29, 5.26, 5.26, 5.7, 5.81, 5.64, 5.64, 5.64, 5.51, 5.51, 5.51, 5.51, 5.2, 5.2, 4.8, 3.79, 3.79, 3.79, 0.0, 0.0, 0.0, 0.0, 0.0, 0.0, 0.0, -1.84, -1.7, -1.3, -1.3, -1.3, -1.7, -1.7, -1.7, -1.7, -1.7, -2.98, -2.73, -2.48, -2.23, -1.98, -2.23, -2.23, -1.8, -1.8, -1.6, -1.13, 0.0, 1.8, 1.13, 0.0, 0.0, 0.0, 0.0, 0.0, 0.0, 0.98, 1.08, 2.2, 2.2, 2.2, 1.99, 1.98, 3.35, 4.88, 6.88, 12.64, 5.8, 5.09, 4.98, 4.15, 3.82, 0.88, 1.08, -0.0, -0.0, -0.0, -0.0, -0.0, 2.4, 4.43, 4.43, 4.43, 5.64, 5.64, 5.64, 5.64, 5.64, 5.64, 5.64, 5.16, 5.16, 5.16, 5.16, 5.16, 5.09, 5.09, 5.09, 5.29, 5.29, 5.26, 5.26, 5.7, 5.81, 5.81, 5.64, 5.51, 5.51, 5.51, 5.51, 5.2, 5.2, 5.2, 5.2, 3.79, 3.79, 3.79, 0.0, 0.0, 0.0, 0.0, 0.0, 0.0, 0.0, -1.84, -1.7, -1.7, -2.4, -2.98, -2.98, -2.98, -2.98, -2.98, -2.98, -2.98, -2.73, -2.73, -2.23, -2.23, -2.23, -2.23, -2.23, -1.8, -1.8, -1.13, 0.0, 0.0, 0.0, 0.0, 0.0, 0.0, 0.0, 0.0, 0.0, 0.98, 1.08, 1.08, 1.08, 1.08, 0.96, 0.96, 2.12, 2.82, 2.7, 0.0, -0.0, 2.79, 5.48, 2.19, 1.25, -0.0, -0.0, -0.0, -0.0, -1.27, -0.0, -0.0, 2.2, 3.48, 3.48, 3.48, 5.44, 5.44, 5.44, 5.44, 5.44, 5.64, 5.64, 5.16, 5.16, 5.16, 5.16, 5.16, 5.09, 5.09, 5.09, 5.09, 5.29, 5.26, 5.26, 5.7, 5.7, 5.81, 5.64, 5.51, 5.51, 5.51, 5.51, 5.2, 5.2, 5.2, 5.2, 3.79, 3.79, 3.79, 0.0, 0.0, 0.0, 0.0, 0.0, 0.0, -1.7, -1.84, -1.84, -1.7, -2.98, -2.98, -2.98, -2.98, -2.98, -2.98, -2.98, -2.98, -2.73, -2.48, -2.23, -2.23, -2.23, -2.23, -2.23, -1.8, -1.8, -1.98, -1.6, 0.0, 0.0, 0.0, 0.0, 0.0, 0.0, 0.0, 0.0, 0.98, 0.0, 0.0, 0.0, 1.08, 0.88, 0.96, 1.84, 2.12, 1.25, 0.0, -7.0, -0.0, 2.89, 2.6, -0.0, -0.0, -0.0, -0.0, -0.0, -0.0, -0.0, -0.0, 2.73, 3.16, 3.16, 3.16, 5.44, 5.44, 5.44, 5.44, 5.44, 5.44, 5.44, 5.16, 5.16, 5.16, 5.16, 5.16, 5.09, 5.09, 5.09, 5.09, 5.29, 5.26, 5.26, 5.7, 5.64, 5.81, 5.81, 5.51, 5.51, 5.51, 5.51, 5.2, 5.2, 5.2, 5.2, 4.11, 3.79, 3.79, 0.0, 0.0, 0.0, 0.0, 0.0, 0.0, -1.7, -1.7, -1.7, -1.7, -2.98, -2.98, -2.98, -2.98, -2.98, -2.98, -2.98, -2.98, -2.73, -2.48, -2.48, -2.23, -2.23, -2.23, -2.23, -2.23, -1.8, -1.98, -1.13, -1.13, 0.0, 0.0, -1.6, -2.53, -1.4, -1.13, -1.13, 0.0, 0.0, 0.0, 1.08, 1.08, 1.08, 0.96, 1.05, 1.05, 1.23, 0.0, -8.22, -2.72, 2.63, 2.6, -0.0, -0.96, -0.81, -1.08, -0.0, -0.0, -0.0, -0.0, 2.23, 3.16, 3.16, 3.16, 5.44, 5.44, 5.44, 5.44, 5.44, 5.44, 5.44, 4.93, 5.16, 5.16, 5.16, 5.16, 5.09, 5.09, 5.09, 5.09, 5.29, 5.26, 5.26, 5.26, 5.64, 5.81, 5.81, 5.81, 5.51, 5.51, 5.51, 5.2, 5.2, 5.2, 5.2, 4.11, 3.79, 3.79, 0.0, 0.0, 0.0, 0.0, 0.0, 0.0, -1.7, -1.7, -1.7, -1.7, -2.98, -2.98, -2.98, -2.98, -2.98, -2.98, -2.98, -2.73, -2.73, -2.48, -2.48, -2.48, -2.23, -2.23, -2.23, -2.23, -2.23, -1.98, -1.98, -1.98, -0.76, 0.0, -0.99, -1.4, -2.21, -2.53, -2.53, -2.21, -0.99, 0.98, 1.08, 2.0, 1.08, 1.08, 0.96, 0.96, 1.3, 0.0, -5.06, -0.0, 2.54, -0.0, 0.0, -2.6, -2.49, -1.83, -1.98, -1.0, -0.0, -0.0, 3.48, 4.43, 4.43, 4.43, 5.44, 5.44, 5.44, 5.44, 5.44, 5.44, 5.44, 5.34, 5.16, 5.16, 5.16, 5.16, 5.09, 5.09, 5.09, 5.09, 5.09, 5.26, 5.26, 5.26, 5.64, 5.64, 5.81, 5.81, 5.81, 5.51, 5.51, 5.2, 5.2, 5.2, 4.11, 4.11, 3.79, 3.79, 0.0, 0.0, 0.0, 0.0, 0.0, 0.0, -1.7, -1.7, -1.7, -1.7, -2.98, -2.98, -2.98, -2.98, -2.98, -2.98, -2.98, -2.73, -2.73, -2.48, -2.48, -2.48, -2.48, -2.23, -2.23, -2.23, -2.23, -1.98, -1.98, -1.98, -1.6, -0.7, -0.98, -1.13, -1.6, -1.4, -1.4, -1.4, -2.21, -1.2, 0.98, 1.08, 1.08, 0.96, 0.0, 0.0, 0.98, 0.0, 3.48, 3.6, 4.38, -0.0, 0.0, 0.0, -5.37, -3.63, -3.48, -2.98, -2.53, -0.0, 2.8, 4.84, 4.84, 4.84, 5.2, 5.2, 5.44, 5.44, 5.44, 5.44, 5.44, 5.34, 5.59, 5.16, 5.16, 5.16, 5.09, 5.09, 5.09, 5.09, 5.09, 5.26, 5.26, 5.26, 5.64, 5.64, 5.64, 5.81, 5.81, 5.51, 5.51, 5.2, 5.2, 5.2, 4.11, 4.11, 3.79, 0.0, 0.0, 0.0, 0.0, 0.0, 0.0, 0.0, -1.7, -1.7, -1.7, -2.98, -2.98, -2.98, -2.98, -2.98, -2.98, -2.98, -2.98, -2.73, -2.73, -2.48, -2.48, -2.48, -2.48, -2.48, -2.23, -2.23, -2.23, -1.98, -1.98, -2.53, -2.15, -1.33, -0.88, 0.0, 0.0, 0.0, 0.0, 0.0, 0.0, 0.0, 0.0, 0.0, 0.0, 0.0, 0.0, 0.0, 0.0, 0.0, 2.2, 5.15, 3.79, -0.0, 0.0, 0.0, 0.0, -5.06, -4.11, -3.48, -2.84, -0.0, 1.84, 5.21, 5.21, 5.21, 5.2, 5.2, 5.44, 5.44, 5.44, 5.44, 5.34, 5.34, 5.59, 5.59, 5.59, 5.16, 5.09, 5.09, 5.09, 5.09, 5.09, 5.26, 5.26, 5.26, 5.2, 5.64, 5.64, 5.51, 5.51, 5.51, 5.51, 5.2, 5.2, 5.2, 4.11, 4.11, 4.11, 0.0, 0.0, 0.0, 0.0, 0.0, 0.0, 0.0, -1.7, -1.7, -1.7, -2.98, -2.98, -2.98, -2.98, -2.98, -2.98, -2.98, -3.79, -3.48, -3.48, -2.48, -2.48, -2.48, -2.48, -2.48, -2.23, -2.23, -2.23, -1.98, -2.53, -2.53, -2.41, -2.07, -1.27, 0.0, 0.0, 0.0, 0.96, 2.0, 1.98, 1.2, 0.0, 0.0, 0.0, 0.0, 0.0, 0.0, 0.0, 0.0, -0.0, -0.0, -0.0, -0.0, -0.0, 0.0, 0.0, -5.95, -4.43, -3.48, -2.23, -0.0, 2.12, 5.06, 5.06, 5.06, 5.2, 5.2, 5.2, 5.44, 5.44, 5.44, 5.34, 5.34, 5.59, 5.59, 5.59, 5.59, 5.09, 5.09, 5.09, 5.09, 5.09, 5.26, 5.26, 5.26, 5.2, 5.2, 5.64, 5.51, 5.51, 5.51, 5.2, 5.2, 5.2, 5.2, 4.11, 4.11, 4.11, 0.0, 0.0, 0.0, 0.0, 0.0, 0.0, 0.0, -1.7, -1.7, -2.98, -2.98, -2.98, -2.98, -2.98, -2.98, -3.79, -3.79, -3.48, -3.48, -3.48, -3.48, -3.16, -2.48, -2.48, -2.48, -2.48, -2.23, -2.23, -2.23, -2.53, -2.15, -2.41, -2.07, -1.49, 0.0, 0.0, 0.0, 0.96, 1.08, 1.8, 1.13, 0.0, 0.0, 0.0, 0.0, 1.08, 0.98, 1.27, 2.53, -0.0, -0.0, -0.0, -0.0, -0.0, -0.0, -0.0, -3.97, -4.47, -2.95, -1.27, -0.0, 2.4, 4.22, 4.22, 4.22, 5.2, 5.2, 5.2, 5.44, 5.44, 5.34, 5.34, 5.34, 5.59, 5.59, 5.59, 5.51, 5.51, 5.09, 5.09, 5.09, 5.29, 5.26, 5.26, 5.26, 5.2, 5.2, 5.2, 5.09, 5.09, 5.09, 4.8, 5.2, 5.2, 5.2, 4.11, 4.11, 4.11, 0.0, 0.0, 0.0, 0.0, 0.0, 0.0, -2.4, -1.7, -1.7, -2.98, -2.98, -2.98, -2.98, -3.79, -3.79, -3.79, -3.79, -3.48, -3.48, -3.48, -3.48, -3.16, -3.16, -3.16, -3.16, -3.16, -2.84, -2.84, -2.84, -2.84, -2.41, -2.41, -2.3, -1.49, -0.79, 0.0, 0.0, 0.0, 0.0, 0.98, 0.0, 0.0, 0.0, 0.0, 0.0, 0.96, 2.0, 3.16, 3.82, 2.23, -0.0, -0.0, -0.0, -0.0, -0.0, -0.0, -1.7, -4.56, -4.02, -4.22, -0.0, 2.54, 4.71, 4.71, 4.71, 5.2, 5.2, 5.2, 5.2, 5.34, 5.34, 5.34, 5.34, 5.34, 5.59, 5.59, 5.51, 5.51, 5.51, 5.09, 5.29, 5.26, 5.26, 5.26, 5.26, 5.2, 5.2, 5.2, 5.09, 5.09, 5.09, 4.8, 4.8, 5.2, 5.2, 4.11, 4.11, 4.11, 0.0, 0.0, 0.0, 0.0, 0.0, 0.0, -2.4, -1.7, -1.7, -2.98, -2.98, -2.98, -3.79, -3.79, -3.79, -3.79, -3.79, -3.79, -3.48, -3.48, -3.48, -3.48, -3.16, -3.16, -3.16, -3.16, -3.16, -2.84, -2.84, -2.84, -2.41, -2.68, -2.68, -2.0, -0.98, -0.59, 0.0, 0.0, 0.0, 0.0, 0.0, 0.0, 0.0, 0.0, 0.0, 0.96, 2.2, 2.95, 4.4, 3.9, 1.23, -0.0, -2.19, -1.3, -0.0, -0.0, -1.27, -3.72, -5.69, -4.71, -0.0, 2.69, 7.81, 7.81, 7.81, 5.6, 5.6, 5.2, 5.2, 5.34, 5.34, 5.34, 5.34, 5.34, 5.59, 5.59, 5.51, 5.51, 5.51, 5.51, 5.29, 5.26, 5.26, 5.26, 5.26, 5.2, 5.2, 5.2, 5.09, 5.09, 5.09, 4.8, 4.8, 4.8, 5.2, 4.11, 4.11, 4.11, 0.0, 0.0, 0.0, 0.0, 0.0, -2.4, -2.4, -1.7, -1.7, -2.98, -2.98, -2.98, -3.79, -3.79, -3.79, -3.79, -3.79, -3.79, -3.48, -3.48, -3.48, -3.48, -3.16, -3.16, -3.16, -3.16, -3.16, -3.16, -2.84, -2.84, -2.41, -2.68, -2.68, -2.73, -1.27, -0.7, 0.0, 0.0, 0.0, 0.0, 0.0, 0.0, 0.0, 0.0, 0.0, 1.08, 1.99, 1.99, 2.95, 4.02, 2.8, -0.0, -2.37, -4.8, -3.47, -2.23, -2.53, -4.24, -5.95, -4.46, -0.0, 4.0, 6.32, 6.32, 6.32, 5.6, 5.6, 5.6, 5.6, 5.43, 5.75, 5.75, 5.75, 5.34, 5.34, 5.51, 5.51, 5.51, 5.51, 5.51, 5.51, 5.26, 5.26, 5.26, 5.26, 5.2, 5.2, 5.2, 5.09, 5.09, 5.09, 4.8, 4.8, 4.8, 3.79, 3.79, 4.11, 0.0, 0.0, 0.0, 0.0, 0.0, 0.0, -2.4, -2.4, -2.4, -2.98, -2.98, -2.98, -3.79, -3.79, -3.79, -3.79, -3.79, -3.79, -3.79, -3.48, -3.48, -3.48, -3.48, -3.48, -3.16, -3.16, -3.16, -3.16, -3.16, -3.16, -2.84, -2.68, -2.68, -2.68, -2.73, -1.41, -0.87, 0.0, 0.57, 1.05, 1.08, 0.98, 1.08, 1.08, 1.08, 0.98, 1.08, 0.96, 0.88, 2.2, 3.58, 3.0, -0.0, -4.81, -6.44, -5.9, -7.6, -5.64, -3.39, -4.0, -5.69, -0.0, 6.01, 7.2, 7.2, 7.2, 5.6, 5.6, 5.6, 5.6, 5.43, 5.75, 5.75, 5.75, 5.75, 5.6, 5.51, 5.51, 5.51, 5.51, 5.51, 5.4, 5.4, 5.26, 5.26, 5.26, 5.2, 5.2, 5.2, 5.09, 5.09, 5.09, 4.8, 4.8, 3.79, 2.4, 2.4, 2.4, 0.0, 0.0, 0.0, 0.0, 0.0, -2.4, -2.4, -2.4, -2.4, -2.98, -2.98, -3.22, -4.11, -4.11, -3.79, -3.79, -3.79, -3.79, -3.79, -3.48, -3.48, -3.48, -3.48, -3.48, -3.48, -3.16, -3.16, -3.16, -3.16, -3.16, -3.16, -2.68, -2.68, -3.16, -3.48, -2.0, 0.0, 0.0, 0.0, 0.96, 2.0, 1.55, 1.08, 1.08, 1.08, 1.08, 0.0, 0.0, 0.0, 1.08, 3.58, 2.8, -0.0, -4.98, -6.9, -8.94, -8.3, -7.89, -4.02, -3.58, -6.4, -5.69, 0.0, 6.71, 6.71, 6.71, 5.6, 5.6, 5.6, 5.6, 5.43, 5.75, 5.75, 5.75, 5.75, 5.6, 5.2, 5.51, 5.51, 5.51, 5.4, 5.4, 5.4, 4.98, 4.98, 5.26, 5.2, 5.2, 5.2, 5.09, 5.09, 5.09, 4.8, 3.79, 3.79, 2.4, 2.4, 2.4, 0.0, 0.0, 0.0, 0.0, 0.0, -2.4, -2.4, -2.4, -3.79, -2.98, -3.22, -3.22, -4.11, -4.11, -4.11, -3.79, -3.79, -3.79, -4.29, -4.29, -3.48, -3.48, -3.48, -3.48, -3.48, -3.16, -3.16, -3.16, -3.16, -3.16, -3.16, -3.16, -2.68, -3.16, -3.16, -2.0, -2.0, 0.0, 0.0, 0.61, 1.16, 0.0, 0.0, 0.0, 1.08, 1.08, 0.0, 0.0, 0.0, 0.96, 3.35, 5.21, -0.0, -4.48, -9.48, -10.73, -10.18, -9.7, -8.05, -4.92, -4.47, -6.71, -6.26, 0.0, 0.0, 0.0, 5.6, 5.6, 5.6, 5.6, 5.43, 5.75, 5.75, 5.75, 5.75, 5.6, 5.2, 5.51, 5.51, 5.51, 5.4, 5.4, 5.4, 4.98, 4.98, 5.26, 5.2, 5.2, 5.2, 5.09, 5.09, 5.09, 4.8, 3.79, 3.79, 2.4, 2.4, 2.4, 0.0, 0.0, 0.0, 0.0, 0.0, -2.4, -2.4, -2.4, -3.79, -2.98, -3.22, -3.22, -4.11, -4.11, -4.11, -3.79, -3.79, -3.79, -4.29, -4.29, -3.48, -3.48, -3.48, -3.48, -3.48, -3.16, -3.16, -3.16, -3.16, -3.16, -3.16, -3.16, -2.68, -3.16, -3.16, -2.0, -2.0, 0.0, 0.0, 0.61, 1.16, 0.0, 0.0, 0.0, 1.08, 1.08, 0.0, 0.0, 0.0, 0.0, 2.23, 6.26, 2.06, -2.1, -7.51, -10.37, -11.87, -11.91, -12.07, -10.28, -7.15, -6.71, -5.81, 0.0, 0.0, 0.0]}]